Wetterdaten: aktuell Dienstag, 12.05.2020 17:18
Datum Zeit Temp. I. Temp. 2m Temp. 5cm Feuchte I. Feuchte 2m Luftdruck Regen Wind Richtung Richtung Taupunkt Windchill Windben
12.05.2020 17:18 21,2 C 8,1 C 17,6 C 52 % 51 % 1017,4 hPa 0,0 l/m 3,5 km/h (1 Bft) NO 45 -1,4 C 8,1 C 0,0 km/h (0 Bft)
12.05.2020 17:16 21,2 C 8,4 C 17,8 C 52 % 49 % 1017,4 hPa 0,0 l/m 3,5 km/h (1 Bft) S 180 -1,7 C 8,4 C 4,4 km/h (1 Bft)
12.05.2020 17:14 21,2 C 8,6 C 18,5 C 52 % 50 % 1017,4 hPa 0,0 l/m 4,0 km/h (1 Bft) O 90 -1,2 C 8,6 C 6,8 km/h (2 Bft)
12.05.2020 17:12 21,2 C 8,2 C 18,2 C 51 % 53 % 1017,4 hPa 0,0 l/m 4,5 km/h (1 Bft) O-NO 67 -0,8 C 8,2 C 6,2 km/h (2 Bft)
12.05.2020 17:10 21,2 C 8,4 C 18,6 C 51 % 53 % 1017,4 hPa 0,0 l/m 4,2 km/h (1 Bft) NO 45 -0,6 C 8,4 C 9,5 km/h (2 Bft)
12.05.2020 17:08 21,2 C 8,4 C 19,3 C 51 % 52 % 1017,4 hPa 0,0 l/m 4,2 km/h (1 Bft) N-NW 337 -0,9 C 8,4 C 3,5 km/h (1 Bft)
12.05.2020 17:06 21,2 C 9,0 C 20,2 C 51 % 51 % 1017,7 hPa 0,0 l/m 5,0 km/h (1 Bft) NO 45 -0,6 C 8,6 C 3,3 km/h (1 Bft)
12.05.2020 17:04 21,2 C 9,7 C 20,6 C 51 % 52 % 1017,7 hPa 0,0 l/m 5,1 km/h (1 Bft) NO 45 0,3 C 9,4 C 9,1 km/h (2 Bft)
12.05.2020 17:02 21,2 C 9,5 C 21,2 C 52 % 51 % 1017,7 hPa 0,0 l/m 4,7 km/h (1 Bft) O-NO 67 -0,1 C 9,3 C 7,1 km/h (2 Bft)
12.05.2020 17:00 21,2 C 9,4 C 21,7 C 52 % 49 % 1017,7 hPa 0,0 l/m 4,7 km/h (1 Bft) O-NO 67 -0,8 C 9,2 C 5,0 km/h (1 Bft)
12.05.2020 16:58 21,2 C 9,3 C 22,3 C 51 % 50 % 1017,7 hPa 0,0 l/m 5,5 km/h (1 Bft) N-NO 22 -0,6 C 8,8 C 6,2 km/h (2 Bft)
12.05.2020 16:56 21,2 C 9,6 C 22,5 C 52 % 46 % 1017,7 hPa 0,0 l/m 5,5 km/h (1 Bft) NO 45 -1,4 C 9,2 C 7,7 km/h (2 Bft)
12.05.2020 16:54 21,2 C 10,0 C 22,7 C 52 % 51 % 1017,7 hPa 0,0 l/m 4,8 km/h (1 Bft) O-NO 67 0,3 C 9,8 C 4,1 km/h (1 Bft)
12.05.2020 16:52 21,2 C 9,9 C 22,8 C 52 % 52 % 1017,7 hPa 0,0 l/m 4,7 km/h (1 Bft) NO 45 0,5 C 9,7 C 5,4 km/h (1 Bft)
12.05.2020 16:50 21,2 C 9,9 C 22,8 C 52 % 51 % 1017,7 hPa 0,0 l/m 4,5 km/h (1 Bft) O-SO 112 0,2 C 9,9 C 7,3 km/h (2 Bft)
12.05.2020 16:48 21,2 C 9,8 C 23,6 C 52 % 48 % 1017,7 hPa 0,0 l/m 4,2 km/h (1 Bft) N 360 -0,7 C 9,8 C 13,3 km/h (3 Bft)
12.05.2020 16:46 21,2 C 10,3 C 23,6 C 52 % 48 % 1017,8 hPa 0,0 l/m 3,7 km/h (1 Bft) N-NO 22 -0,2 C 10,3 C 5,4 km/h (1 Bft)
12.05.2020 16:44 21,2 C 10,7 C 23,6 C 52 % 47 % 1017,8 hPa 0,0 l/m 4,0 km/h (1 Bft) SO 135 -0,1 C 10,7 C 2,1 km/h (1 Bft)
12.05.2020 16:42 21,2 C 10,1 C 23,6 C 52 % 45 % 1017,8 hPa 0,0 l/m 4,5 km/h (1 Bft) O-NO 67 -1,3 C 10,1 C 3,3 km/h (1 Bft)
12.05.2020 16:40 21,2 C 9,9 C 23,7 C 52 % 49 % 1017,8 hPa 0,0 l/m 3,7 km/h (1 Bft) S-SO 157 -0,3 C 9,9 C 9,1 km/h (2 Bft)
12.05.2020 16:38 21,2 C 9,8 C 23,4 C 52 % 43 % 1017,8 hPa 0,0 l/m 3,7 km/h (1 Bft) S-SO 157 -2,2 C 9,8 C 9,1 km/h (2 Bft)
12.05.2020 16:36 21,2 C 9,7 C 23,9 C 52 % 46 % 1017,8 hPa 0,0 l/m 3,2 km/h (1 Bft) S-SO 157 -1,3 C 9,7 C 5,4 km/h (1 Bft)
12.05.2020 16:34 21,2 C 9,9 C 23,6 C 52 % 44 % 1017,8 hPa 0,0 l/m 3,2 km/h (1 Bft) O-NO 67 -1,8 C 9,9 C 6,2 km/h (2 Bft)
12.05.2020 16:32 21,2 C 10,1 C 23,6 C 52 % 45 % 1017,8 hPa 0,0 l/m 3,7 km/h (1 Bft) S-SO 157 -1,3 C 10,1 C 7,0 km/h (2 Bft)
12.05.2020 16:30 21,2 C 10,0 C 23,4 C 52 % 44 % 1017,8 hPa 0,0 l/m 4,3 km/h (1 Bft) O 90 -1,7 C 10,0 C 2,9 km/h (1 Bft)
12.05.2020 16:28 21,2 C 9,5 C 23,1 C 52 % 43 % 1017,8 hPa 0,0 l/m 5,8 km/h (2 Bft) O-NO 67 -2,4 C 9,0 C 2,5 km/h (1 Bft)
12.05.2020 16:26 21,2 C 9,3 C 23,2 C 52 % 42 % 1018,0 hPa 0,0 l/m 7,1 km/h (2 Bft) SW 225 -2,9 C 8,4 C 6,8 km/h (2 Bft)
12.05.2020 16:24 21,2 C 9,3 C 23,2 C 53 % 42 % 1018,0 hPa 0,0 l/m 7,2 km/h (2 Bft) S-SO 157 -2,9 C 8,4 C 6,6 km/h (2 Bft)
12.05.2020 16:22 21,2 C 9,5 C 23,3 C 53 % 45 % 1018,0 hPa 0,0 l/m 7,1 km/h (2 Bft) S 180 -1,8 C 8,6 C 9,5 km/h (2 Bft)
12.05.2020 16:20 21,2 C 9,4 C 23,7 C 53 % 45 % 1018,0 hPa 0,0 l/m 7,2 km/h (2 Bft) S 180 -1,9 C 8,5 C 12,4 km/h (3 Bft)
12.05.2020 16:18 21,2 C 9,3 C 23,4 C 53 % 45 % 1018,0 hPa 0,0 l/m 7,2 km/h (2 Bft) SW 225 -2,0 C 8,4 C 12,4 km/h (3 Bft)
12.05.2020 16:16 21,2 C 9,5 C 23,5 C 53 % 46 % 1018,0 hPa 0,0 l/m 7,1 km/h (2 Bft) S 180 -1,5 C 8,6 C 13,9 km/h (3 Bft)
12.05.2020 16:14 21,2 C 9,3 C 23,5 C 53 % 47 % 1018,0 hPa 0,0 l/m 6,8 km/h (2 Bft) SW 225 -1,4 C 8,5 C 11,6 km/h (2 Bft)
12.05.2020 16:12 21,3 C 9,5 C 23,5 C 53 % 46 % 1018,0 hPa 0,0 l/m 6,8 km/h (2 Bft) S-SO 157 -1,5 C 8,7 C 8,3 km/h (2 Bft)
12.05.2020 16:10 21,2 C 9,8 C 23,1 C 53 % 46 % 1018,0 hPa 0,0 l/m 6,0 km/h (2 Bft) SW 225 -1,3 C 9,2 C 11,6 km/h (2 Bft)
12.05.2020 16:08 21,3 C 9,8 C 23,2 C 53 % 50 % 1018,0 hPa 0,0 l/m 4,8 km/h (1 Bft) S-SW 202 -0,1 C 9,6 C 12,9 km/h (3 Bft)
12.05.2020 16:06 21,3 C 9,9 C 23,1 C 53 % 50 % 1018,2 hPa 0,0 l/m 3,5 km/h (1 Bft) W-SW 247 -0,0 C 9,9 C 9,3 km/h (2 Bft)
12.05.2020 16:04 21,2 C 9,8 C 22,9 C 53 % 50 % 1018,2 hPa 0,0 l/m 3,2 km/h (1 Bft) S 180 -0,1 C 9,8 C 9,1 km/h (2 Bft)
12.05.2020 16:02 21,2 C 9,9 C 23,0 C 53 % 49 % 1018,2 hPa 0,0 l/m 2,7 km/h (1 Bft) S-SW 202 -0,3 C 9,9 C 8,7 km/h (2 Bft)
12.05.2020 16:00 21,2 C 9,6 C 23,2 C 53 % 49 % 1018,2 hPa 0,0 l/m 3,1 km/h (1 Bft) SW 225 -0,6 C 9,6 C 4,8 km/h (1 Bft)
12.05.2020 15:58 21,4 C 9,1 C 23,2 C 53 % 45 % 1018,2 hPa 0,0 l/m 3,5 km/h (1 Bft) S-SO 157 -2,2 C 9,1 C 0,0 km/h (0 Bft)
12.05.2020 15:56 21,4 C 9,1 C 23,3 C 53 % 47 % 1018,2 hPa 0,0 l/m 4,8 km/h (1 Bft) N-NW 337 -1,6 C 8,8 C 2,3 km/h (1 Bft)
12.05.2020 15:54 21,4 C 8,9 C 23,3 C 53 % 49 % 1018,2 hPa 0,0 l/m 5,6 km/h (1 Bft) W-NW 292 -1,2 C 8,3 C 6,0 km/h (2 Bft)
12.05.2020 15:52 21,2 C 9,2 C 23,3 C 53 % 50 % 1018,2 hPa 0,0 l/m 6,0 km/h (2 Bft) N-NO 22 -0,7 C 8,6 C 5,8 km/h (2 Bft)
12.05.2020 15:50 21,4 C 9,1 C 23,3 C 53 % 48 % 1018,2 hPa 0,0 l/m 7,1 km/h (2 Bft) SW 225 -1,3 C 8,2 C 10,0 km/h (2 Bft)
12.05.2020 15:48 21,4 C 9,1 C 23,3 C 53 % 46 % 1018,2 hPa 0,0 l/m 7,9 km/h (2 Bft) W-SW 247 -1,9 C 8,0 C 4,2 km/h (1 Bft)
12.05.2020 15:46 21,4 C 9,4 C 23,4 C 53 % 51 % 1018,3 hPa 0,0 l/m 8,4 km/h (2 Bft) SW 225 -0,2 C 8,2 C 9,7 km/h (2 Bft)
12.05.2020 15:44 21,4 C 9,4 C 23,3 C 53 % 51 % 1018,3 hPa 0,0 l/m 8,0 km/h (2 Bft) S 180 -0,2 C 8,3 C 10,8 km/h (2 Bft)
12.05.2020 15:42 21,4 C 9,4 C 23,4 C 53 % 50 % 1018,3 hPa 0,0 l/m 8,9 km/h (2 Bft) SW 225 -0,5 C 8,1 C 9,1 km/h (2 Bft)
12.05.2020 15:40 21,4 C 9,5 C 23,3 C 53 % 50 % 1018,3 hPa 0,0 l/m 8,9 km/h (2 Bft) SO 135 -0,4 C 8,2 C 13,3 km/h (3 Bft)
12.05.2020 15:38 21,4 C 9,3 C 22,8 C 52 % 50 % 1018,3 hPa 0,0 l/m 8,9 km/h (2 Bft) SW 225 -0,6 C 8,0 C 12,4 km/h (3 Bft)
12.05.2020 15:36 21,4 C 9,2 C 22,8 C 53 % 49 % 1018,3 hPa 0,0 l/m 8,9 km/h (2 Bft) SW 225 -0,9 C 7,9 C 12,4 km/h (3 Bft)
12.05.2020 15:34 21,4 C 9,1 C 22,5 C 53 % 46 % 1018,3 hPa 0,0 l/m 8,7 km/h (2 Bft) W 270 -1,9 C 7,8 C 0,0 km/h (0 Bft)
12.05.2020 15:32 21,4 C 9,5 C 22,5 C 53 % 50 % 1018,3 hPa 0,0 l/m 8,9 km/h (2 Bft) W-NW 292 -0,4 C 8,2 C 21,2 km/h (4 Bft)
12.05.2020 15:30 21,4 C 9,1 C 21,9 C 52 % 49 % 1018,3 hPa 0,0 l/m 7,9 km/h (2 Bft) W-SW 247 -1,0 C 8,0 C 14,1 km/h (3 Bft)
12.05.2020 15:28 21,4 C 9,4 C 21,7 C 52 % 46 % 1018,3 hPa 0,0 l/m 7,9 km/h (2 Bft) W-SW 247 -1,6 C 8,3 C 12,0 km/h (2 Bft)
12.05.2020 15:26 21,4 C 9,5 C 21,6 C 52 % 49 % 1018,3 hPa 0,0 l/m 6,4 km/h (2 Bft) S 180 -0,7 C 8,8 C 20,9 km/h (4 Bft)
12.05.2020 15:24 21,4 C 9,3 C 21,5 C 52 % 51 % 1018,3 hPa 0,0 l/m 5,8 km/h (2 Bft) NW 315 -0,3 C 8,7 C 11,2 km/h (2 Bft)
12.05.2020 15:22 21,4 C 8,8 C 21,3 C 52 % 47 % 1018,3 hPa 0,0 l/m 5,8 km/h (2 Bft) W-SW 247 -1,9 C 8,1 C 6,6 km/h (2 Bft)
12.05.2020 15:20 21,4 C 8,7 C 21,1 C 52 % 46 % 1018,3 hPa 0,0 l/m 5,6 km/h (1 Bft) SW 225 -2,3 C 8,1 C 5,4 km/h (1 Bft)
12.05.2020 15:18 21,4 C 8,4 C 20,7 C 52 % 46 % 1018,3 hPa 0,0 l/m 6,8 km/h (2 Bft) W-NW 292 -2,5 C 7,4 C 12,0 km/h (2 Bft)
12.05.2020 15:16 21,4 C 8,3 C 20,0 C 52 % 45 % 1018,3 hPa 0,0 l/m 8,0 km/h (2 Bft) NO 45 -2,9 C 7,0 C 3,1 km/h (1 Bft)
12.05.2020 15:14 21,4 C 8,3 C 19,2 C 52 % 48 % 1018,3 hPa 0,0 l/m 8,2 km/h (2 Bft) S 180 -2,1 C 7,0 C 9,1 km/h (2 Bft)
12.05.2020 15:12 21,5 C 8,4 C 19,4 C 52 % 53 % 1018,3 hPa 0,0 l/m 8,0 km/h (2 Bft) S-SW 202 -0,6 C 7,1 C 8,5 km/h (2 Bft)
12.05.2020 15:10 21,5 C 8,4 C 20,2 C 52 % 44 % 1018,3 hPa 0,0 l/m 7,9 km/h (2 Bft) SO 135 -3,1 C 7,2 C 15,1 km/h (3 Bft)
12.05.2020 15:08 21,5 C 8,8 C 20,4 C 52 % 48 % 1018,3 hPa 0,0 l/m 6,4 km/h (2 Bft) S-SO 157 -1,6 C 8,0 C 22,2 km/h (4 Bft)
12.05.2020 15:06 21,4 C 8,7 C 20,4 C 52 % 47 % 1018,4 hPa 0,0 l/m 4,3 km/h (1 Bft) SO 135 -2,0 C 8,7 C 18,3 km/h (3 Bft)
12.05.2020 15:04 21,5 C 8,8 C 20,4 C 52 % 45 % 1018,4 hPa 0,0 l/m 2,9 km/h (1 Bft) SW 225 -2,5 C 8,8 C 16,0 km/h (3 Bft)
12.05.2020 15:02 21,5 C 8,5 C 20,2 C 52 % 43 % 1018,4 hPa 0,0 l/m 2,7 km/h (1 Bft) SW 225 -3,3 C 8,5 C 4,2 km/h (1 Bft)
12.05.2020 15:00 21,5 C 8,6 C 19,8 C 52 % 46 % 1018,4 hPa 0,0 l/m 2,1 km/h (1 Bft) S-SW 202 -2,4 C 8,6 C 4,4 km/h (1 Bft)
12.05.2020 14:58 21,5 C 7,8 C 19,2 C 52 % 50 % 1018,4 hPa 0,0 l/m 2,1 km/h (1 Bft) SO 135 -2,0 C 7,8 C 2,7 km/h (1 Bft)
12.05.2020 14:56 21,5 C 7,2 C 17,3 C 52 % 44 % 1018,4 hPa 0,0 l/m 2,6 km/h (1 Bft) S 180 -4,2 C 7,2 C 2,1 km/h (1 Bft)
12.05.2020 14:54 21,4 C 7,1 C 17,9 C 52 % 43 % 1018,4 hPa 0,0 l/m 3,4 km/h (1 Bft) S-SW 202 -4,6 C 7,1 C 0,0 km/h (0 Bft)
12.05.2020 14:52 21,4 C 7,2 C 18,5 C 52 % 46 % 1018,4 hPa 0,0 l/m 3,9 km/h (1 Bft) S 180 -3,6 C 7,2 C 3,1 km/h (1 Bft)
12.05.2020 14:50 21,4 C 7,2 C 18,6 C 52 % 47 % 1018,4 hPa 0,0 l/m 3,9 km/h (1 Bft) W-SW 247 -3,3 C 7,2 C 5,8 km/h (2 Bft)
12.05.2020 14:48 21,4 C 7,2 C 18,7 C 52 % 50 % 1018,4 hPa 0,0 l/m 3,9 km/h (1 Bft) SW 225 -2,5 C 7,2 C 3,9 km/h (1 Bft)
12.05.2020 14:46 21,5 C 7,3 C 18,4 C 52 % 54 % 1018,9 hPa 0,0 l/m 3,7 km/h (1 Bft) SW 225 -1,4 C 7,3 C 6,2 km/h (2 Bft)
12.05.2020 14:44 21,5 C 7,1 C 18,6 C 52 % 54 % 1018,9 hPa 0,0 l/m 3,9 km/h (1 Bft) W 270 -1,6 C 7,1 C 6,0 km/h (2 Bft)
12.05.2020 14:42 21,5 C 7,3 C 19,1 C 52 % 55 % 1018,9 hPa 0,0 l/m 3,4 km/h (1 Bft) W-SW 247 -1,1 C 7,3 C 6,2 km/h (2 Bft)
12.05.2020 14:40 21,5 C 7,5 C 19,8 C 52 % 56 % 1018,9 hPa 0,0 l/m 5,3 km/h (1 Bft) W-SW 247 -0,7 C 6,8 C 5,0 km/h (1 Bft)
12.05.2020 14:38 21,6 C 7,4 C 20,1 C 52 % 53 % 1018,9 hPa 0,0 l/m 6,4 km/h (2 Bft) W 270 -1,5 C 6,4 C 5,2 km/h (1 Bft)
12.05.2020 14:36 21,6 C 7,8 C 21,4 C 52 % 50 % 1018,9 hPa 0,0 l/m 8,4 km/h (2 Bft) N-NO 22 -2,0 C 6,3 C 3,7 km/h (1 Bft)
12.05.2020 14:34 21,6 C 8,3 C 22,1 C 52 % 53 % 1018,9 hPa 0,0 l/m 10,1 km/h (2 Bft) W 270 -0,7 C 6,6 C 31,3 km/h (5 Bft)
12.05.2020 14:32 21,6 C 8,1 C 22,8 C 52 % 48 % 1018,9 hPa 0,0 l/m 12,6 km/h (3 Bft) S 180 -2,2 C 5,9 C 1,9 km/h (1 Bft)
12.05.2020 14:30 21,6 C 8,3 C 22,6 C 52 % 53 % 1018,9 hPa 0,0 l/m 13,8 km/h (3 Bft) S-SW 202 -0,7 C 6,0 C 18,0 km/h (3 Bft)
12.05.2020 14:28 21,6 C 8,7 C 22,7 C 52 % 53 % 1018,9 hPa 0,0 l/m 13,4 km/h (3 Bft) SW 225 -0,3 C 6,5 C 22,6 km/h (4 Bft)
12.05.2020 14:26 21,6 C 8,6 C 22,8 C 52 % 53 % 1018,9 hPa 0,0 l/m 12,4 km/h (3 Bft) SW 225 -0,4 C 6,6 C 18,2 km/h (3 Bft)
12.05.2020 14:24 21,6 C 8,8 C 22,6 C 52 % 53 % 1018,9 hPa 0,0 l/m 11,6 km/h (2 Bft) SO 135 -0,2 C 6,9 C 28,8 km/h (4 Bft)
12.05.2020 14:22 21,6 C 8,8 C 22,4 C 52 % 53 % 1018,9 hPa 0,0 l/m 10,6 km/h (2 Bft) S 180 -0,2 C 7,1 C 19,5 km/h (3 Bft)
12.05.2020 14:20 21,6 C 8,2 C 22,0 C 52 % 52 % 1018,9 hPa 0,0 l/m 10,8 km/h (2 Bft) S 180 -1,1 C 6,3 C 22,2 km/h (4 Bft)
12.05.2020 14:18 21,6 C 8,4 C 21,9 C 52 % 51 % 1018,9 hPa 0,0 l/m 11,3 km/h (2 Bft) S-SO 157 -1,1 C 6,5 C 21,2 km/h (4 Bft)
12.05.2020 14:16 21,6 C 8,4 C 21,7 C 52 % 55 % 1018,9 hPa 0,0 l/m 10,3 km/h (2 Bft) SO 135 -0,1 C 6,7 C 8,1 km/h (2 Bft)
12.05.2020 14:14 21,6 C 8,0 C 21,6 C 52 % 50 % 1018,9 hPa 0,0 l/m 10,1 km/h (2 Bft) SO 135 -1,8 C 6,2 C 13,1 km/h (3 Bft)
12.05.2020 14:12 21,6 C 8,3 C 20,8 C 52 % 50 % 1018,9 hPa 0,0 l/m 9,8 km/h (2 Bft) S 180 -1,5 C 6,6 C 22,8 km/h (4 Bft)
12.05.2020 14:10 21,6 C 8,4 C 20,8 C 52 % 53 % 1018,9 hPa 0,0 l/m 8,0 km/h (2 Bft) S-SW 202 -0,6 C 7,1 C 25,5 km/h (4 Bft)
12.05.2020 14:08 21,6 C 8,2 C 20,3 C 52 % 51 % 1018,9 hPa 0,0 l/m 7,2 km/h (2 Bft) SW 225 -1,3 C 7,1 C 24,3 km/h (4 Bft)
12.05.2020 14:06 21,6 C 8,6 C 20,0 C 52 % 54 % 1019,1 hPa 0,0 l/m 6,8 km/h (2 Bft) W 270 -0,2 C 7,6 C 7,5 km/h (2 Bft)
12.05.2020 14:04 21,6 C 8,3 C 19,8 C 52 % 59 % 1019,1 hPa 0,0 l/m 6,9 km/h (2 Bft) S 180 0,8 C 7,3 C 7,1 km/h (2 Bft)
12.05.2020 14:02 21,6 C 7,8 C 18,4 C 52 % 57 % 1019,1 hPa 0,0 l/m 7,1 km/h (2 Bft) SO 135 -0,2 C 6,6 C 14,5 km/h (3 Bft)
12.05.2020 14:00 21,5 C 7,0 C 17,8 C 52 % 56 % 1019,1 hPa 0,0 l/m 6,6 km/h (2 Bft) S 180 -1,2 C 5,8 C 5,2 km/h (1 Bft)
12.05.2020 13:58 21,5 C 6,3 C 16,6 C 52 % 55 % 1019,1 hPa 0,0 l/m 6,0 km/h (2 Bft) S-SW 202 -2,1 C 5,2 C 19,5 km/h (3 Bft)
12.05.2020 13:56 21,5 C 6,3 C 15,5 C 52 % 55 % 1019,1 hPa 0,0 l/m 5,6 km/h (1 Bft) NW 315 -2,1 C 5,3 C 6,2 km/h (2 Bft)
12.05.2020 13:54 21,5 C 6,3 C 15,7 C 52 % 61 % 1019,1 hPa 0,0 l/m 5,3 km/h (1 Bft) S-SW 202 -0,7 C 5,5 C 6,4 km/h (2 Bft)
12.05.2020 13:52 21,6 C 6,2 C 15,7 C 52 % 61 % 1019,1 hPa 0,0 l/m 5,0 km/h (1 Bft) S-SW 202 -0,7 C 5,4 C 9,3 km/h (2 Bft)
12.05.2020 13:50 21,6 C 6,0 C 15,9 C 52 % 60 % 1019,1 hPa 0,0 l/m 4,7 km/h (1 Bft) S-SW 202 -1,2 C 5,3 C 7,3 km/h (2 Bft)
12.05.2020 13:48 21,6 C 6,1 C 16,0 C 52 % 60 % 1019,1 hPa 0,0 l/m 4,5 km/h (1 Bft) S-SW 202 -1,1 C 6,1 C 8,7 km/h (2 Bft)
12.05.2020 13:46 21,6 C 6,2 C 16,0 C 52 % 62 % 1019,1 hPa 0,0 l/m 4,3 km/h (1 Bft) S-SW 202 -0,5 C 6,2 C 12,0 km/h (2 Bft)
12.05.2020 13:44 21,6 C 6,1 C 16,1 C 52 % 61 % 1019,1 hPa 0,0 l/m 4,8 km/h (1 Bft) SO 135 -0,8 C 5,4 C 3,3 km/h (1 Bft)
12.05.2020 13:42 21,6 C 6,3 C 16,2 C 52 % 62 % 1019,1 hPa 0,0 l/m 5,6 km/h (1 Bft) W-SW 247 -0,4 C 5,3 C 7,7 km/h (2 Bft)
12.05.2020 13:40 21,6 C 6,3 C 16,3 C 52 % 63 % 1019,1 hPa 0,0 l/m 5,8 km/h (2 Bft) N-NO 22 -0,2 C 5,3 C 5,0 km/h (1 Bft)
12.05.2020 13:38 21,7 C 6,1 C 16,6 C 52 % 61 % 1019,1 hPa 0,0 l/m 6,3 km/h (2 Bft) W 270 -0,8 C 4,9 C 5,8 km/h (2 Bft)
12.05.2020 13:36 21,7 C 6,1 C 16,8 C 52 % 60 % 1019,1 hPa 0,0 l/m 6,9 km/h (2 Bft) W-SW 247 -1,1 C 4,7 C 6,6 km/h (2 Bft)
12.05.2020 13:34 21,7 C 6,2 C 17,1 C 52 % 61 % 1019,1 hPa 0,0 l/m 7,2 km/h (2 Bft) SW 225 -0,7 C 4,8 C 14,5 km/h (3 Bft)
12.05.2020 13:32 21,7 C 6,4 C 17,2 C 52 % 60 % 1019,1 hPa 0,0 l/m 6,0 km/h (2 Bft) S-SW 202 -0,8 C 5,3 C 15,3 km/h (3 Bft)
12.05.2020 13:30 21,7 C 6,8 C 17,5 C 52 % 62 % 1019,1 hPa 0,0 l/m 5,6 km/h (1 Bft) SW 225 0,0 C 5,9 C 7,9 km/h (2 Bft)
12.05.2020 13:28 21,8 C 6,5 C 18,0 C 52 % 60 % 1019,1 hPa 0,0 l/m 5,6 km/h (1 Bft) W-SW 247 -0,7 C 5,6 C 9,8 km/h (2 Bft)
12.05.2020 13:26 21,8 C 6,7 C 18,1 C 52 % 59 % 1019,2 hPa 0,0 l/m 5,8 km/h (2 Bft) SW 225 -0,7 C 5,7 C 7,0 km/h (2 Bft)
12.05.2020 13:24 21,8 C 7,0 C 18,8 C 52 % 58 % 1019,2 hPa 0,0 l/m 5,8 km/h (2 Bft) SW 225 -0,7 C 6,1 C 13,3 km/h (3 Bft)
12.05.2020 13:22 21,8 C 7,1 C 19,4 C 52 % 58 % 1019,2 hPa 0,0 l/m 6,1 km/h (2 Bft) SO 135 -0,6 C 6,1 C 4,8 km/h (1 Bft)
12.05.2020 13:20 21,8 C 7,0 C 19,3 C 52 % 58 % 1019,2 hPa 0,0 l/m 6,8 km/h (2 Bft) O-SO 112 -0,7 C 5,8 C 6,8 km/h (2 Bft)
12.05.2020 13:18 21,8 C 7,2 C 19,4 C 52 % 60 % 1019,2 hPa 0,0 l/m 6,8 km/h (2 Bft) S-SO 157 -0,0 C 6,0 C 6,8 km/h (2 Bft)
12.05.2020 13:16 21,8 C 7,1 C 19,5 C 52 % 60 % 1019,2 hPa 0,0 l/m 6,0 km/h (2 Bft) S-SO 157 -0,1 C 6,1 C 9,5 km/h (2 Bft)
12.05.2020 13:14 21,8 C 7,0 C 19,5 C 52 % 60 % 1019,2 hPa 0,0 l/m 6,9 km/h (2 Bft) SW 225 -0,2 C 5,8 C 10,4 km/h (2 Bft)
12.05.2020 13:12 21,8 C 7,1 C 19,9 C 52 % 58 % 1019,2 hPa 0,0 l/m 6,9 km/h (2 Bft) S-SO 157 -0,6 C 5,9 C 8,9 km/h (2 Bft)
12.05.2020 13:10 21,8 C 7,2 C 20,3 C 52 % 59 % 1019,2 hPa 0,0 l/m 8,0 km/h (2 Bft) S-SO 157 -0,3 C 5,7 C 11,2 km/h (2 Bft)
12.05.2020 13:08 21,8 C 7,2 C 20,5 C 52 % 58 % 1019,2 hPa 0,0 l/m 8,5 km/h (2 Bft) S-SO 157 -0,5 C 5,6 C 6,8 km/h (2 Bft)
12.05.2020 13:06 21,8 C 7,3 C 21,2 C 52 % 56 % 1019,3 hPa 0,0 l/m 9,3 km/h (2 Bft) O-NO 67 -0,9 C 5,5 C 2,7 km/h (1 Bft)
12.05.2020 13:04 21,8 C 7,2 C 21,0 C 52 % 58 % 1019,3 hPa 0,0 l/m 8,5 km/h (2 Bft) S-SW 202 -0,5 C 5,6 C 20,9 km/h (4 Bft)
12.05.2020 13:02 21,8 C 7,0 C 20,3 C 52 % 57 % 1019,3 hPa 0,0 l/m 8,7 km/h (2 Bft) SW 225 -0,9 C 5,3 C 8,1 km/h (2 Bft)
12.05.2020 13:00 21,8 C 7,3 C 19,3 C 52 % 59 % 1019,3 hPa 0,0 l/m 8,5 km/h (2 Bft) SW 225 -0,2 C 5,7 C 16,0 km/h (3 Bft)
12.05.2020 12:58 21,8 C 6,5 C 19,0 C 52 % 56 % 1019,3 hPa 0,0 l/m 6,8 km/h (2 Bft) SW 225 -1,6 C 5,2 C 10,0 km/h (2 Bft)
12.05.2020 12:56 21,8 C 6,9 C 19,0 C 52 % 60 % 1019,3 hPa 0,0 l/m 7,2 km/h (2 Bft) S-SW 202 -0,3 C 5,6 C 11,4 km/h (2 Bft)
12.05.2020 12:54 21,8 C 6,5 C 18,9 C 52 % 59 % 1019,3 hPa 0,0 l/m 6,4 km/h (2 Bft) SW 225 -0,9 C 5,3 C 4,8 km/h (1 Bft)
12.05.2020 12:52 21,8 C 6,5 C 18,9 C 52 % 60 % 1019,3 hPa 0,0 l/m 7,2 km/h (2 Bft) S 180 -0,7 C 5,1 C 15,1 km/h (3 Bft)
12.05.2020 12:50 21,8 C 6,8 C 19,2 C 52 % 60 % 1019,3 hPa 0,0 l/m 6,9 km/h (2 Bft) S 180 -0,4 C 5,5 C 9,7 km/h (2 Bft)
12.05.2020 12:48 21,7 C 6,9 C 19,2 C 52 % 56 % 1019,3 hPa 0,0 l/m 7,6 km/h (2 Bft) SO 135 -1,3 C 5,5 C 4,8 km/h (1 Bft)
12.05.2020 12:46 21,7 C 6,9 C 19,0 C 52 % 59 % 1019,2 hPa 0,0 l/m 7,2 km/h (2 Bft) S-SO 157 -0,5 C 5,6 C 10,8 km/h (2 Bft)
12.05.2020 12:44 21,7 C 6,8 C 19,2 C 52 % 54 % 1019,2 hPa 0,0 l/m 7,7 km/h (2 Bft) SO 135 -1,8 C 5,3 C 0,0 km/h (0 Bft)
12.05.2020 12:42 21,7 C 7,0 C 19,2 C 52 % 57 % 1019,2 hPa 0,0 l/m 7,9 km/h (2 Bft) W-SW 247 -0,9 C 5,5 C 6,8 km/h (2 Bft)
12.05.2020 12:40 21,6 C 7,0 C 18,5 C 52 % 58 % 1019,2 hPa 0,0 l/m 7,7 km/h (2 Bft) S 180 -0,7 C 5,6 C 18,9 km/h (3 Bft)
12.05.2020 12:38 21,6 C 7,0 C 18,4 C 52 % 58 % 1019,2 hPa 0,0 l/m 7,2 km/h (2 Bft) S 180 -0,7 C 5,7 C 18,5 km/h (3 Bft)
12.05.2020 12:36 21,6 C 6,7 C 17,7 C 52 % 59 % 1019,2 hPa 0,0 l/m 6,3 km/h (2 Bft) W-SW 247 -0,7 C 5,6 C 9,3 km/h (2 Bft)
12.05.2020 12:34 21,6 C 6,4 C 17,6 C 52 % 58 % 1019,2 hPa 0,0 l/m 5,6 km/h (1 Bft) S 180 -1,2 C 5,5 C 13,3 km/h (3 Bft)
12.05.2020 12:32 21,6 C 6,4 C 17,7 C 53 % 58 % 1019,2 hPa 0,0 l/m 5,0 km/h (1 Bft) SW 225 -1,2 C 5,7 C 14,1 km/h (3 Bft)
12.05.2020 12:30 21,6 C 6,4 C 17,5 C 52 % 58 % 1019,2 hPa 0,0 l/m 5,1 km/h (1 Bft) S 180 -1,2 C 5,6 C 4,6 km/h (1 Bft)
12.05.2020 12:28 21,5 C 6,4 C 17,4 C 52 % 60 % 1019,2 hPa 0,0 l/m 5,3 km/h (1 Bft) S 180 -0,8 C 5,6 C 5,6 km/h (1 Bft)
12.05.2020 12:26 21,6 C 6,4 C 17,4 C 53 % 61 % 1019,2 hPa 0,0 l/m 6,3 km/h (2 Bft) S-SO 157 -0,6 C 5,2 C 5,2 km/h (1 Bft)
12.05.2020 12:24 21,6 C 6,0 C 17,3 C 53 % 58 % 1019,2 hPa 0,0 l/m 6,9 km/h (2 Bft) S-SO 157 -1,6 C 4,6 C 8,9 km/h (2 Bft)
12.05.2020 12:22 21,6 C 5,9 C 17,1 C 53 % 58 % 1019,2 hPa 0,0 l/m 6,9 km/h (2 Bft) S 180 -1,7 C 4,5 C 10,6 km/h (2 Bft)
12.05.2020 12:20 21,6 C 5,8 C 17,2 C 53 % 57 % 1019,2 hPa 0,0 l/m 6,6 km/h (2 Bft) SO 135 -2,0 C 4,5 C 11,4 km/h (2 Bft)
12.05.2020 12:18 21,5 C 6,1 C 17,8 C 53 % 57 % 1019,2 hPa 0,0 l/m 6,6 km/h (2 Bft) S-SO 157 -1,8 C 4,8 C 13,1 km/h (3 Bft)
12.05.2020 12:16 21,5 C 6,6 C 18,2 C 53 % 62 % 1019,2 hPa 0,0 l/m 6,3 km/h (2 Bft) S-SO 157 -0,1 C 5,5 C 8,9 km/h (2 Bft)
12.05.2020 12:14 21,5 C 6,0 C 17,2 C 53 % 58 % 1019,2 hPa 0,0 l/m 6,6 km/h (2 Bft) S-SO 157 -1,6 C 4,7 C 8,7 km/h (2 Bft)
12.05.2020 12:12 21,5 C 5,7 C 17,2 C 53 % 58 % 1019,2 hPa 0,0 l/m 7,7 km/h (2 Bft) SW 225 -1,9 C 4,0 C 8,7 km/h (2 Bft)
12.05.2020 12:10 21,5 C 5,7 C 17,2 C 53 % 58 % 1019,2 hPa 0,0 l/m 7,7 km/h (2 Bft) SW 225 -1,9 C 4,0 C 8,7 km/h (2 Bft)
12.05.2020 12:08 21,4 C 5,7 C 17,2 C 53 % 58 % 1019,2 hPa 0,0 l/m 7,7 km/h (2 Bft) SW 225 -1,9 C 4,0 C 8,7 km/h (2 Bft)
12.05.2020 12:06 21,5 C 5,7 C 17,2 C 53 % 58 % 1019,1 hPa 0,0 l/m 7,7 km/h (2 Bft) SW 225 -1,9 C 4,0 C 8,7 km/h (2 Bft)
12.05.2020 12:04 21,4 C 5,7 C 17,2 C 53 % 58 % 1019,1 hPa 0,0 l/m 7,7 km/h (2 Bft) SW 225 -1,9 C 4,0 C 8,7 km/h (2 Bft)
12.05.2020 12:02 21,4 C 5,7 C 17,2 C 53 % 58 % 1019,1 hPa 0,0 l/m 7,7 km/h (2 Bft) SW 225 -1,9 C 4,0 C 8,7 km/h (2 Bft)
12.05.2020 12:00 21,4 C 5,8 C 17,0 C 53 % 59 % 1019,1 hPa 0,0 l/m 7,1 km/h (2 Bft) SW 225 -1,6 C 4,3 C 11,0 km/h (2 Bft)
12.05.2020 11:58 21,4 C 5,8 C 16,5 C 53 % 61 % 1019,1 hPa 0,0 l/m 6,6 km/h (2 Bft) S-SO 157 -1,1 C 4,5 C 7,1 km/h (2 Bft)
12.05.2020 11:56 21,4 C 5,5 C 16,5 C 53 % 61 % 1019,1 hPa 0,0 l/m 7,1 km/h (2 Bft) S 180 -1,4 C 4,0 C 7,0 km/h (2 Bft)
12.05.2020 11:54 21,4 C 5,6 C 16,4 C 53 % 60 % 1019,1 hPa 0,0 l/m 7,1 km/h (2 Bft) S 180 -1,5 C 4,1 C 12,6 km/h (3 Bft)
12.05.2020 11:52 21,5 C 5,6 C 16,4 C 53 % 60 % 1019,1 hPa 0,0 l/m 7,1 km/h (2 Bft) S 180 -1,5 C 4,1 C 10,0 km/h (2 Bft)
12.05.2020 11:50 21,4 C 5,6 C 16,4 C 53 % 59 % 1019,1 hPa 0,0 l/m 7,2 km/h (2 Bft) S 180 -1,8 C 4,1 C 5,6 km/h (1 Bft)
12.05.2020 11:48 21,4 C 5,5 C 16,3 C 53 % 60 % 1019,1 hPa 0,0 l/m 7,1 km/h (2 Bft) S-SO 157 -1,6 C 4,0 C 11,2 km/h (2 Bft)
12.05.2020 11:46 21,4 C 5,6 C 16,1 C 53 % 61 % 1018,9 hPa 0,0 l/m 7,2 km/h (2 Bft) S-SW 202 -1,3 C 4,1 C 13,5 km/h (3 Bft)
12.05.2020 11:44 21,4 C 5,2 C 16,0 C 53 % 59 % 1018,9 hPa 0,0 l/m 7,1 km/h (2 Bft) S-SO 157 -2,1 C 3,6 C 10,4 km/h (2 Bft)
12.05.2020 11:42 21,4 C 5,5 C 16,1 C 53 % 60 % 1018,9 hPa 0,0 l/m 7,1 km/h (2 Bft) SO 135 -1,6 C 4,0 C 10,8 km/h (2 Bft)
12.05.2020 11:40 21,4 C 5,4 C 16,2 C 53 % 59 % 1018,9 hPa 0,0 l/m 6,6 km/h (2 Bft) S-SO 157 -2,0 C 4,0 C 10,6 km/h (2 Bft)
12.05.2020 11:38 21,4 C 5,5 C 16,2 C 53 % 60 % 1018,9 hPa 0,0 l/m 6,4 km/h (2 Bft) SO 135 -1,6 C 4,2 C 8,9 km/h (2 Bft)
12.05.2020 11:36 21,4 C 5,8 C 16,5 C 53 % 60 % 1018,9 hPa 0,0 l/m 6,4 km/h (2 Bft) S-SO 157 -1,4 C 4,5 C 14,7 km/h (3 Bft)
12.05.2020 11:34 21,4 C 5,7 C 16,4 C 53 % 59 % 1018,9 hPa 0,0 l/m 6,4 km/h (2 Bft) S-SO 157 -1,7 C 4,4 C 8,9 km/h (2 Bft)
12.05.2020 11:32 21,2 C 5,9 C 15,8 C 53 % 61 % 1018,9 hPa 0,0 l/m 6,6 km/h (2 Bft) S-SW 202 -1,0 C 4,6 C 12,0 km/h (2 Bft)
12.05.2020 11:30 21,2 C 5,9 C 15,5 C 53 % 64 % 1018,9 hPa 0,0 l/m 6,6 km/h (2 Bft) SW 225 -0,4 C 4,6 C 6,8 km/h (2 Bft)
12.05.2020 11:28 21,2 C 5,5 C 15,0 C 53 % 61 % 1018,9 hPa 0,0 l/m 6,6 km/h (2 Bft) S-SW 202 -1,4 C 4,1 C 8,9 km/h (2 Bft)
12.05.2020 11:26 21,2 C 5,5 C 15,0 C 53 % 62 % 1018,8 hPa 0,0 l/m 7,2 km/h (2 Bft) S-SO 157 -1,2 C 3,9 C 8,5 km/h (2 Bft)
12.05.2020 11:24 21,3 C 5,4 C 14,9 C 53 % 62 % 1018,8 hPa 0,0 l/m 7,4 km/h (2 Bft) S 180 -1,3 C 3,8 C 10,2 km/h (2 Bft)
12.05.2020 11:22 21,2 C 5,4 C 14,7 C 53 % 61 % 1018,8 hPa 0,0 l/m 7,4 km/h (2 Bft) S 180 -1,5 C 3,8 C 13,1 km/h (3 Bft)
12.05.2020 11:20 21,3 C 5,2 C 14,7 C 53 % 62 % 1018,8 hPa 0,0 l/m 6,8 km/h (2 Bft) S-SO 157 -1,5 C 3,7 C 10,6 km/h (2 Bft)
12.05.2020 11:18 21,2 C 5,1 C 14,7 C 53 % 61 % 1018,8 hPa 0,0 l/m 5,6 km/h (1 Bft) S-SO 157 -1,8 C 4,0 C 9,7 km/h (2 Bft)
12.05.2020 11:16 21,2 C 5,0 C 14,8 C 53 % 60 % 1018,8 hPa 0,0 l/m 5,0 km/h (1 Bft) S 180 -2,1 C 4,1 C 11,8 km/h (2 Bft)
12.05.2020 11:14 21,2 C 5,2 C 15,0 C 53 % 59 % 1018,8 hPa 0,0 l/m 4,3 km/h (1 Bft) SO 135 -2,1 C 5,2 C 11,2 km/h (2 Bft)
12.05.2020 11:12 21,2 C 5,6 C 15,2 C 53 % 58 % 1018,8 hPa 0,0 l/m 4,3 km/h (1 Bft) S-SO 157 -2,0 C 5,6 C 7,5 km/h (2 Bft)
12.05.2020 11:10 21,2 C 5,5 C 15,2 C 53 % 53 % 1018,8 hPa 0,0 l/m 4,0 km/h (1 Bft) S 180 -3,3 C 5,5 C 2,9 km/h (1 Bft)
12.05.2020 11:08 21,3 C 5,5 C 15,3 C 53 % 55 % 1018,8 hPa 0,0 l/m 4,5 km/h (1 Bft) O-NO 67 -2,8 C 5,5 C 3,5 km/h (1 Bft)
12.05.2020 11:06 21,2 C 5,4 C 15,2 C 53 % 53 % 1018,8 hPa 0,0 l/m 5,1 km/h (1 Bft) W-SW 247 -3,4 C 4,5 C 3,5 km/h (1 Bft)
12.05.2020 11:04 21,2 C 5,4 C 15,3 C 53 % 53 % 1018,8 hPa 0,0 l/m 5,3 km/h (1 Bft) SW 225 -3,4 C 4,4 C 12,4 km/h (3 Bft)
12.05.2020 11:02 21,2 C 5,4 C 14,9 C 53 % 57 % 1018,8 hPa 0,0 l/m 4,8 km/h (1 Bft) SW 225 -2,4 C 4,6 C 11,0 km/h (2 Bft)
12.05.2020 11:00 21,2 C 5,4 C 14,7 C 53 % 55 % 1018,8 hPa 0,0 l/m 4,7 km/h (1 Bft) S 180 -2,9 C 4,7 C 2,7 km/h (1 Bft)
12.05.2020 10:58 21,2 C 5,6 C 14,5 C 53 % 56 % 1018,8 hPa 0,0 l/m 4,5 km/h (1 Bft) S 180 -2,5 C 5,6 C 8,5 km/h (2 Bft)
12.05.2020 10:56 21,2 C 5,7 C 14,5 C 53 % 57 % 1018,8 hPa 0,0 l/m 3,9 km/h (1 Bft) S 180 -2,1 C 5,7 C 8,9 km/h (2 Bft)
12.05.2020 10:54 21,2 C 5,6 C 14,1 C 53 % 55 % 1018,8 hPa 0,0 l/m 3,2 km/h (1 Bft) S 180 -2,7 C 5,6 C 10,0 km/h (2 Bft)
12.05.2020 10:52 21,2 C 5,1 C 13,6 C 53 % 58 % 1018,8 hPa 0,0 l/m 2,7 km/h (1 Bft) SW 225 -2,5 C 5,1 C 6,0 km/h (2 Bft)
12.05.2020 10:50 21,2 C 4,8 C 13,1 C 53 % 55 % 1018,8 hPa 0,0 l/m 2,1 km/h (1 Bft) SW 225 -3,5 C 4,8 C 5,6 km/h (1 Bft)
12.05.2020 10:48 21,1 C 4,8 C 13,1 C 53 % 55 % 1018,8 hPa 0,0 l/m 1,4 km/h (1 Bft) W-SW 247 -3,5 C 4,8 C 5,4 km/h (1 Bft)
12.05.2020 10:46 21,2 C 4,8 C 13,1 C 53 % 55 % 1018,8 hPa 0,0 l/m 1,3 km/h (1 Bft) W-SW 247 -3,5 C 4,8 C 0,0 km/h (0 Bft)
12.05.2020 10:44 21,2 C 5,0 C 12,8 C 53 % 58 % 1018,8 hPa 0,0 l/m 1,3 km/h (1 Bft) S 180 -2,6 C 5,0 C 3,5 km/h (1 Bft)
12.05.2020 10:42 21,2 C 4,9 C 12,8 C 53 % 57 % 1018,8 hPa 0,0 l/m 1,0 km/h (0 Bft) SW 225 -2,9 C 4,9 C 2,3 km/h (1 Bft)
12.05.2020 10:40 21,1 C 4,7 C 12,8 C 53 % 57 % 1018,8 hPa 0,0 l/m 1,1 km/h (1 Bft) S-SO 157 -3,1 C 4,7 C 0,0 km/h (0 Bft)
12.05.2020 10:38 21,1 C 4,7 C 12,7 C 53 % 57 % 1018,8 hPa 0,0 l/m 1,8 km/h (1 Bft) N-NO 22 -3,1 C 4,7 C 0,0 km/h (0 Bft)
12.05.2020 10:36 21,1 C 4,8 C 12,7 C 53 % 58 % 1018,8 hPa 0,0 l/m 2,3 km/h (1 Bft) SO 135 -2,7 C 4,8 C 0,0 km/h (0 Bft)
12.05.2020 10:34 21,1 C 4,7 C 12,6 C 53 % 60 % 1018,8 hPa 0,0 l/m 3,1 km/h (1 Bft) O-SO 112 -2,4 C 4,7 C 5,0 km/h (1 Bft)
12.05.2020 10:32 21,1 C 4,5 C 12,6 C 53 % 59 % 1018,8 hPa 0,0 l/m 3,9 km/h (1 Bft) SO 135 -2,8 C 4,5 C 3,7 km/h (1 Bft)
12.05.2020 10:30 21,1 C 4,3 C 12,4 C 53 % 59 % 1018,8 hPa 0,0 l/m 3,7 km/h (1 Bft) O-NO 67 -3,0 C 4,3 C 3,7 km/h (1 Bft)
12.05.2020 10:28 21,1 C 4,2 C 12,4 C 53 % 55 % 1018,8 hPa 0,0 l/m 3,9 km/h (1 Bft) N-NW 337 -4,0 C 4,2 C 4,2 km/h (1 Bft)
12.05.2020 10:26 21,2 C 4,5 C 12,4 C 53 % 58 % 1018,6 hPa 0,0 l/m 4,0 km/h (1 Bft) N-NW 337 -3,0 C 4,5 C 8,9 km/h (2 Bft)
12.05.2020 10:24 21,2 C 4,5 C 12,4 C 53 % 57 % 1018,6 hPa 0,0 l/m 4,0 km/h (1 Bft) N-NW 337 -3,3 C 4,5 C 8,9 km/h (2 Bft)
12.05.2020 10:22 21,1 C 4,5 C 12,4 C 53 % 59 % 1018,6 hPa 0,0 l/m 3,9 km/h (1 Bft) N-NW 337 -2,8 C 4,5 C 7,9 km/h (2 Bft)
12.05.2020 10:20 21,1 C 4,6 C 12,4 C 53 % 61 % 1018,6 hPa 0,0 l/m 4,0 km/h (1 Bft) NW 315 -2,3 C 4,6 C 2,7 km/h (1 Bft)
12.05.2020 10:18 21,1 C 4,6 C 12,4 C 53 % 62 % 1018,6 hPa 0,0 l/m 4,5 km/h (1 Bft) NO 45 -2,0 C 4,6 C 5,6 km/h (1 Bft)
12.05.2020 10:16 21,1 C 4,5 C 12,3 C 53 % 61 % 1018,6 hPa 0,0 l/m 4,8 km/h (1 Bft) O-NO 67 -2,4 C 3,6 C 4,1 km/h (1 Bft)
12.05.2020 10:14 21,1 C 4,5 C 12,3 C 54 % 60 % 1018,6 hPa 0,0 l/m 5,0 km/h (1 Bft) N-NW 337 -2,6 C 3,5 C 7,0 km/h (2 Bft)
12.05.2020 10:12 21,1 C 4,5 C 12,4 C 54 % 62 % 1018,6 hPa 0,0 l/m 5,0 km/h (1 Bft) NO 45 -2,1 C 3,5 C 9,3 km/h (2 Bft)
12.05.2020 10:10 21,1 C 4,4 C 12,2 C 53 % 62 % 1018,6 hPa 0,0 l/m 5,0 km/h (1 Bft) O-NO 67 -2,2 C 3,4 C 5,2 km/h (1 Bft)
12.05.2020 10:08 21,1 C 4,2 C 12,2 C 54 % 61 % 1018,6 hPa 0,0 l/m 5,1 km/h (1 Bft) NO 45 -2,6 C 3,1 C 6,4 km/h (2 Bft)
12.05.2020 10:06 21,1 C 4,1 C 12,0 C 54 % 60 % 1018,3 hPa 0,0 l/m 5,8 km/h (2 Bft) NO 45 -3,0 C 2,8 C 8,5 km/h (2 Bft)
12.05.2020 10:04 21,1 C 4,2 C 12,0 C 54 % 62 % 1018,3 hPa 0,0 l/m 6,0 km/h (2 Bft) O-NO 67 -2,4 C 2,8 C 8,7 km/h (2 Bft)
12.05.2020 10:02 21,1 C 4,4 C 11,9 C 54 % 63 % 1018,3 hPa 0,0 l/m 6,6 km/h (2 Bft) O-NO 67 -2,0 C 2,8 C 5,2 km/h (1 Bft)
12.05.2020 10:00 21,1 C 4,1 C 11,7 C 54 % 62 % 1018,3 hPa 0,0 l/m 7,1 km/h (2 Bft) NO 45 -2,5 C 2,3 C 6,4 km/h (2 Bft)
12.05.2020 09:58 21,1 C 4,2 C 11,3 C 54 % 63 % 1018,3 hPa 0,0 l/m 7,2 km/h (2 Bft) N-NO 22 -2,2 C 2,4 C 6,4 km/h (2 Bft)
12.05.2020 09:56 21,1 C 4,0 C 11,2 C 54 % 62 % 1018,3 hPa 0,0 l/m 7,4 km/h (2 Bft) N-NO 22 -2,6 C 2,1 C 10,0 km/h (2 Bft)
12.05.2020 09:54 21,1 C 4,0 C 11,2 C 54 % 62 % 1018,3 hPa 0,0 l/m 7,2 km/h (2 Bft) N-NO 22 -2,6 C 2,2 C 13,3 km/h (3 Bft)
12.05.2020 09:52 21,0 C 4,0 C 11,1 C 54 % 62 % 1018,3 hPa 0,0 l/m 6,6 km/h (2 Bft) N 360 -2,6 C 2,4 C 12,9 km/h (3 Bft)
12.05.2020 09:50 21,0 C 3,9 C 11,2 C 54 % 62 % 1018,3 hPa 0,0 l/m 6,1 km/h (2 Bft) N-NO 22 -2,7 C 2,4 C 7,5 km/h (2 Bft)
12.05.2020 09:48 21,1 C 3,8 C 10,9 C 54 % 61 % 1018,3 hPa 0,0 l/m 6,4 km/h (2 Bft) N-NO 22 -3,0 C 2,2 C 7,5 km/h (2 Bft)
12.05.2020 09:46 21,0 C 3,8 C 10,8 C 54 % 62 % 1018,3 hPa 0,0 l/m 6,8 km/h (2 Bft) N-NO 22 -2,8 C 2,1 C 8,9 km/h (2 Bft)
12.05.2020 09:44 21,0 C 3,8 C 10,8 C 54 % 62 % 1018,3 hPa 0,0 l/m 7,1 km/h (2 Bft) N-NO 22 -2,8 C 2,0 C 8,7 km/h (2 Bft)
12.05.2020 09:42 21,0 C 3,6 C 10,8 C 54 % 62 % 1018,3 hPa 0,0 l/m 7,7 km/h (2 Bft) N-NO 22 -3,0 C 1,6 C 7,0 km/h (2 Bft)
12.05.2020 09:40 21,0 C 3,6 C 10,7 C 54 % 63 % 1018,3 hPa 0,0 l/m 8,2 km/h (2 Bft) N-NO 22 -2,8 C 1,4 C 7,7 km/h (2 Bft)
12.05.2020 09:38 21,0 C 3,5 C 10,7 C 54 % 62 % 1018,3 hPa 0,0 l/m 9,0 km/h (2 Bft) NO 45 -3,1 C 1,1 C 9,8 km/h (2 Bft)
12.05.2020 09:36 21,0 C 3,5 C 10,8 C 54 % 63 % 1018,3 hPa 0,0 l/m 9,0 km/h (2 Bft) N-NO 22 -2,9 C 1,1 C 11,0 km/h (2 Bft)
12.05.2020 09:34 21,0 C 3,6 C 10,8 C 54 % 63 % 1018,3 hPa 0,0 l/m 9,2 km/h (2 Bft) NO 45 -2,8 C 1,2 C 13,9 km/h (3 Bft)
12.05.2020 09:32 21,0 C 3,8 C 10,8 C 54 % 64 % 1018,3 hPa 0,0 l/m 8,4 km/h (2 Bft) NO 45 -2,4 C 1,6 C 13,3 km/h (3 Bft)
12.05.2020 09:30 21,0 C 3,6 C 10,8 C 54 % 64 % 1018,3 hPa 0,0 l/m 8,2 km/h (2 Bft) N-NO 22 -2,6 C 1,4 C 17,4 km/h (3 Bft)
12.05.2020 09:28 21,0 C 3,8 C 10,8 C 54 % 65 % 1018,3 hPa 0,0 l/m 8,2 km/h (2 Bft) NO 45 -2,2 C 1,7 C 14,5 km/h (3 Bft)
12.05.2020 09:26 21,0 C 3,8 C 10,8 C 54 % 63 % 1018,1 hPa 0,0 l/m 8,2 km/h (2 Bft) NO 45 -2,6 C 1,7 C 9,8 km/h (2 Bft)
12.05.2020 09:24 21,0 C 3,9 C 11,2 C 54 % 66 % 1018,1 hPa 0,0 l/m 8,2 km/h (2 Bft) N-NO 22 -1,9 C 1,8 C 13,5 km/h (3 Bft)
12.05.2020 09:22 21,0 C 3,9 C 11,0 C 54 % 68 % 1018,1 hPa 0,0 l/m 8,4 km/h (2 Bft) N-NO 22 -1,5 C 1,7 C 7,0 km/h (2 Bft)
12.05.2020 09:20 21,0 C 3,5 C 10,9 C 54 % 64 % 1018,1 hPa 0,0 l/m 8,5 km/h (2 Bft) NO 45 -2,7 C 1,2 C 9,5 km/h (2 Bft)
12.05.2020 09:18 20,9 C 3,5 C 10,9 C 54 % 64 % 1018,1 hPa 0,0 l/m 9,0 km/h (2 Bft) N 360 -2,7 C 1,1 C 13,9 km/h (3 Bft)
12.05.2020 09:16 20,9 C 3,5 C 10,9 C 54 % 68 % 1018,1 hPa 0,0 l/m 8,7 km/h (2 Bft) NO 45 -1,8 C 1,2 C 10,4 km/h (2 Bft)
12.05.2020 09:14 20,9 C 3,5 C 10,8 C 54 % 67 % 1018,1 hPa 0,0 l/m 8,5 km/h (2 Bft) NO 45 -2,0 C 1,2 C 9,7 km/h (2 Bft)
12.05.2020 09:12 20,9 C 3,5 C 10,5 C 54 % 71 % 1018,1 hPa 0,0 l/m 8,9 km/h (2 Bft) N-NO 22 -1,3 C 1,1 C 9,1 km/h (2 Bft)
12.05.2020 09:10 20,8 C 3,1 C 10,5 C 54 % 68 % 1018,1 hPa 0,0 l/m 8,9 km/h (2 Bft) W-NW 292 -2,2 C 0,7 C 8,9 km/h (2 Bft)
12.05.2020 09:08 20,8 C 3,3 C 10,5 C 54 % 68 % 1018,1 hPa 0,0 l/m 8,5 km/h (2 Bft) NO 45 -2,0 C 1,0 C 12,7 km/h (3 Bft)
12.05.2020 09:06 20,9 C 3,3 C 10,4 C 54 % 65 % 1017,9 hPa 0,0 l/m 8,7 km/h (2 Bft) N-NO 22 -2,6 C 0,9 C 12,6 km/h (3 Bft)
12.05.2020 09:04 20,8 C 3,3 C 10,4 C 54 % 68 % 1017,9 hPa 0,0 l/m 8,4 km/h (2 Bft) NO 45 -2,0 C 1,0 C 10,6 km/h (2 Bft)
12.05.2020 09:02 20,8 C 3,3 C 10,4 C 54 % 70 % 1017,9 hPa 0,0 l/m 8,5 km/h (2 Bft) N-NO 22 -1,6 C 1,0 C 11,0 km/h (2 Bft)
12.05.2020 09:00 20,8 C 3,3 C 10,4 C 54 % 71 % 1017,9 hPa 0,0 l/m 8,2 km/h (2 Bft) NO 45 -1,4 C 1,1 C 12,7 km/h (3 Bft)
12.05.2020 08:58 20,8 C 3,0 C 10,3 C 54 % 67 % 1017,9 hPa 0,0 l/m 8,4 km/h (2 Bft) N-NO 22 -2,5 C 0,7 C 12,4 km/h (3 Bft)
12.05.2020 08:56 20,8 C 3,1 C 10,3 C 54 % 69 % 1017,9 hPa 0,0 l/m 8,0 km/h (2 Bft) N-NW 337 -2,0 C 0,9 C 14,3 km/h (3 Bft)
12.05.2020 08:54 20,8 C 3,1 C 10,3 C 54 % 69 % 1017,9 hPa 0,0 l/m 7,9 km/h (2 Bft) N-NO 22 -2,0 C 0,9 C 11,8 km/h (2 Bft)
12.05.2020 08:52 20,8 C 3,3 C 10,5 C 54 % 70 % 1017,9 hPa 0,0 l/m 7,2 km/h (2 Bft) NO 45 -1,6 C 1,4 C 14,3 km/h (3 Bft)
12.05.2020 08:50 20,8 C 3,1 C 10,5 C 54 % 74 % 1017,9 hPa 0,0 l/m 6,8 km/h (2 Bft) NO 45 -1,1 C 1,3 C 9,1 km/h (2 Bft)
12.05.2020 08:48 20,7 C 2,9 C 10,4 C 54 % 72 % 1017,9 hPa 0,0 l/m 7,1 km/h (2 Bft) N-NO 22 -1,6 C 0,9 C 11,2 km/h (2 Bft)
12.05.2020 08:46 20,7 C 2,9 C 10,3 C 54 % 71 % 1017,8 hPa 0,0 l/m 6,4 km/h (2 Bft) N-NO 22 -1,8 C 1,2 C 10,8 km/h (2 Bft)
12.05.2020 08:44 20,7 C 2,9 C 10,3 C 54 % 72 % 1017,8 hPa 0,0 l/m 6,3 km/h (2 Bft) N 360 -1,6 C 1,2 C 8,3 km/h (2 Bft)
12.05.2020 08:42 20,7 C 2,9 C 10,3 C 54 % 72 % 1017,8 hPa 0,0 l/m 6,3 km/h (2 Bft) NO 45 -1,6 C 1,2 C 7,3 km/h (2 Bft)
12.05.2020 08:40 20,7 C 2,8 C 10,3 C 54 % 71 % 1017,8 hPa 0,0 l/m 6,3 km/h (2 Bft) N-NO 22 -1,9 C 1,1 C 10,2 km/h (2 Bft)
12.05.2020 08:38 20,7 C 2,8 C 10,3 C 54 % 71 % 1017,8 hPa 0,0 l/m 6,1 km/h (2 Bft) NO 45 -1,9 C 1,2 C 9,7 km/h (2 Bft)
12.05.2020 08:36 20,7 C 2,8 C 10,3 C 54 % 70 % 1017,8 hPa 0,0 l/m 6,3 km/h (2 Bft) N-NO 22 -2,1 C 1,1 C 9,1 km/h (2 Bft)
12.05.2020 08:34 20,7 C 2,8 C 10,3 C 54 % 71 % 1017,8 hPa 0,0 l/m 6,6 km/h (2 Bft) N-NO 22 -1,9 C 1,0 C 8,1 km/h (2 Bft)
12.05.2020 08:32 20,7 C 2,8 C 10,3 C 54 % 71 % 1017,8 hPa 0,0 l/m 6,4 km/h (2 Bft) N 360 -1,9 C 1,1 C 6,2 km/h (2 Bft)
12.05.2020 08:30 20,7 C 2,8 C 10,3 C 54 % 70 % 1017,8 hPa 0,0 l/m 6,4 km/h (2 Bft) NO 45 -2,1 C 1,1 C 7,9 km/h (2 Bft)
12.05.2020 08:28 20,6 C 2,7 C 10,4 C 54 % 69 % 1017,8 hPa 0,0 l/m 6,3 km/h (2 Bft) N 360 -2,4 C 1,0 C 7,0 km/h (2 Bft)
12.05.2020 08:26 20,6 C 2,5 C 10,4 C 55 % 69 % 1017,7 hPa 0,0 l/m 6,4 km/h (2 Bft) N-NO 22 -2,6 C 0,7 C 8,9 km/h (2 Bft)
12.05.2020 08:24 20,6 C 2,7 C 10,4 C 55 % 70 % 1017,7 hPa 0,0 l/m 6,3 km/h (2 Bft) NO 45 -2,2 C 1,0 C 9,1 km/h (2 Bft)
12.05.2020 08:22 20,6 C 2,7 C 10,4 C 55 % 71 % 1017,7 hPa 0,0 l/m 6,0 km/h (2 Bft) N 360 -2,0 C 1,1 C 8,5 km/h (2 Bft)
12.05.2020 08:20 20,6 C 2,5 C 10,7 C 55 % 73 % 1017,7 hPa 0,0 l/m 5,6 km/h (1 Bft) N-NO 22 -1,8 C 1,0 C 7,7 km/h (2 Bft)
12.05.2020 08:18 20,6 C 2,5 C 10,7 C 55 % 76 % 1017,7 hPa 0,0 l/m 5,1 km/h (1 Bft) N-NO 22 -1,3 C 1,2 C 6,8 km/h (2 Bft)
12.05.2020 08:16 20,6 C 2,7 C 10,7 C 55 % 78 % 1017,7 hPa 0,0 l/m 4,8 km/h (1 Bft) NO 45 -0,7 C 1,6 C 6,0 km/h (2 Bft)
12.05.2020 08:14 20,6 C 2,7 C 10,7 C 55 % 79 % 1017,7 hPa 0,0 l/m 4,5 km/h (1 Bft) N-NO 22 -0,6 C 2,7 C 9,5 km/h (2 Bft)
12.05.2020 08:12 20,6 C 2,7 C 10,8 C 55 % 80 % 1017,7 hPa 0,0 l/m 3,9 km/h (1 Bft) NO 45 -0,4 C 2,7 C 4,6 km/h (1 Bft)
12.05.2020 08:10 20,6 C 2,7 C 10,8 C 55 % 81 % 1017,7 hPa 0,0 l/m 3,9 km/h (1 Bft) W 270 -0,2 C 2,7 C 4,8 km/h (1 Bft)
12.05.2020 08:08 20,6 C 2,8 C 10,8 C 55 % 82 % 1017,7 hPa 0,0 l/m 3,5 km/h (1 Bft) N 360 0,0 C 2,8 C 5,4 km/h (1 Bft)
12.05.2020 08:06 20,6 C 2,7 C 10,8 C 55 % 84 % 1017,2 hPa 0,0 l/m 3,2 km/h (1 Bft) O-NO 67 0,3 C 2,7 C 5,0 km/h (1 Bft)
12.05.2020 08:04 20,5 C 2,7 C 10,8 C 55 % 84 % 1017,2 hPa 0,0 l/m 2,9 km/h (1 Bft) N-NO 22 0,3 C 2,7 C 5,8 km/h (2 Bft)
12.05.2020 08:02 20,6 C 2,7 C 10,7 C 55 % 86 % 1017,2 hPa 0,0 l/m 2,6 km/h (1 Bft) O-NO 67 0,6 C 2,7 C 0,0 km/h (0 Bft)
12.05.2020 08:00 20,6 C 2,5 C 10,7 C 55 % 88 % 1017,2 hPa 0,0 l/m 2,1 km/h (1 Bft) O-NO 67 0,7 C 2,5 C 5,4 km/h (1 Bft)
12.05.2020 07:58 20,5 C 2,6 C 10,3 C 55 % 88 % 1017,2 hPa 0,0 l/m 1,6 km/h (1 Bft) O-NO 67 0,8 C 2,6 C 5,6 km/h (1 Bft)
12.05.2020 07:56 20,5 C 2,6 C 10,3 C 55 % 89 % 1017,2 hPa 0,0 l/m 0,5 km/h (0 Bft) NO 45 1,0 C 2,6 C 5,2 km/h (1 Bft)
12.05.2020 07:54 20,5 C 2,6 C 10,0 C 55 % 89 % 1017,2 hPa 0,0 l/m 0,5 km/h (0 Bft) NO 45 1,0 C 2,6 C 5,2 km/h (1 Bft)
12.05.2020 07:52 20,5 C 2,7 C 10,0 C 55 % 89 % 1017,2 hPa 0,0 l/m 0,0 km/h (0 Bft) N-NO 22 1,1 C 2,7 C 0,0 km/h (0 Bft)
12.05.2020 07:50 20,5 C 2,7 C 10,0 C 55 % 90 % 1017,2 hPa 0,0 l/m 0,0 km/h (0 Bft) S-SO 157 1,2 C 2,7 C 0,0 km/h (0 Bft)
12.05.2020 07:48 20,5 C 2,5 C 10,0 C 55 % 90 % 1017,2 hPa 0,0 l/m 0,0 km/h (0 Bft) S 180 1,0 C 2,5 C 0,0 km/h (0 Bft)
12.05.2020 07:46 20,5 C 2,5 C 10,0 C 55 % 90 % 1017,0 hPa 0,0 l/m 0,0 km/h (0 Bft) S 180 1,0 C 2,5 C 0,0 km/h (0 Bft)
12.05.2020 07:44 20,5 C 2,5 C 9,7 C 54 % 90 % 1017,0 hPa 0,0 l/m 0,0 km/h (0 Bft) SW 225 1,0 C 2,5 C 0,0 km/h (0 Bft)
12.05.2020 07:42 20,5 C 2,3 C 9,7 C 54 % 90 % 1017,0 hPa 0,0 l/m 0,0 km/h (0 Bft) W-SW 247 0,8 C 2,3 C 0,0 km/h (0 Bft)
12.05.2020 07:40 20,5 C 2,3 C 9,7 C 54 % 90 % 1017,0 hPa 0,0 l/m 0,0 km/h (0 Bft) SW 225 0,8 C 2,3 C 0,0 km/h (0 Bft)
12.05.2020 07:38 20,4 C 2,3 C 9,7 C 54 % 90 % 1017,0 hPa 0,0 l/m 0,0 km/h (0 Bft) S 180 0,8 C 2,3 C 0,0 km/h (0 Bft)
12.05.2020 07:36 20,5 C 2,3 C 9,7 C 54 % 91 % 1017,0 hPa 0,0 l/m 0,2 km/h (0 Bft) S 180 1,0 C 2,3 C 0,0 km/h (0 Bft)
12.05.2020 07:34 20,4 C 2,2 C 9,7 C 54 % 91 % 1017,0 hPa 0,0 l/m 0,2 km/h (0 Bft) W-SW 247 0,9 C 2,2 C 0,0 km/h (0 Bft)
12.05.2020 07:32 20,4 C 2,2 C 9,7 C 54 % 91 % 1017,0 hPa 0,0 l/m 0,2 km/h (0 Bft) S 180 0,9 C 2,2 C 0,0 km/h (0 Bft)
12.05.2020 07:30 20,4 C 2,2 C 9,6 C 54 % 91 % 1017,0 hPa 0,0 l/m 0,2 km/h (0 Bft) S 180 0,9 C 2,2 C 0,0 km/h (0 Bft)
12.05.2020 07:28 20,4 C 2,2 C 9,6 C 54 % 91 % 1017,0 hPa 0,0 l/m 0,2 km/h (0 Bft) S 180 0,9 C 2,2 C 0,0 km/h (0 Bft)
12.05.2020 07:26 20,4 C 2,2 C 9,6 C 54 % 91 % 1016,4 hPa 0,0 l/m 0,3 km/h (0 Bft) SW 225 0,9 C 2,2 C 0,0 km/h (0 Bft)
12.05.2020 07:24 20,4 C 2,2 C 9,6 C 54 % 91 % 1016,4 hPa 0,0 l/m 0,2 km/h (0 Bft) SW 225 0,9 C 2,2 C 0,0 km/h (0 Bft)
12.05.2020 07:22 20,4 C 2,2 C 9,6 C 54 % 91 % 1016,4 hPa 0,0 l/m 0,2 km/h (0 Bft) SW 225 0,9 C 2,2 C 0,0 km/h (0 Bft)
12.05.2020 07:20 20,4 C 2,2 C 9,6 C 55 % 91 % 1016,4 hPa 0,0 l/m 0,2 km/h (0 Bft) W-SW 247 0,9 C 2,2 C 0,0 km/h (0 Bft)
12.05.2020 07:18 20,4 C 2,2 C 9,6 C 55 % 91 % 1016,4 hPa 0,0 l/m 0,3 km/h (0 Bft) W 270 0,9 C 2,2 C 0,0 km/h (0 Bft)
12.05.2020 07:16 20,4 C 2,2 C 9,6 C 55 % 91 % 1016,4 hPa 0,0 l/m 0,3 km/h (0 Bft) SW 225 0,9 C 2,2 C 0,0 km/h (0 Bft)
12.05.2020 07:14 20,4 C 2,2 C 9,5 C 55 % 91 % 1016,4 hPa 0,0 l/m 0,6 km/h (0 Bft) S-SW 202 0,9 C 2,2 C 1,9 km/h (1 Bft)
12.05.2020 07:12 20,4 C 2,2 C 9,5 C 55 % 91 % 1016,4 hPa 0,0 l/m 1,1 km/h (1 Bft) S-SO 157 0,9 C 2,2 C 0,0 km/h (0 Bft)
12.05.2020 07:10 20,4 C 2,2 C 9,5 C 55 % 91 % 1016,4 hPa 0,0 l/m 1,3 km/h (1 Bft) W 270 0,9 C 2,2 C 0,0 km/h (0 Bft)
12.05.2020 07:08 20,4 C 2,2 C 9,5 C 55 % 91 % 1016,4 hPa 0,0 l/m 1,3 km/h (1 Bft) SW 225 0,9 C 2,2 C 0,0 km/h (0 Bft)
12.05.2020 07:06 20,4 C 2,2 C 9,5 C 55 % 91 % 1016,3 hPa 0,0 l/m 1,3 km/h (1 Bft) SW 225 0,9 C 2,2 C 2,3 km/h (1 Bft)
12.05.2020 07:04 20,4 C 2,1 C 9,5 C 55 % 92 % 1016,3 hPa 0,0 l/m 1,6 km/h (1 Bft) SW 225 0,9 C 2,1 C 3,1 km/h (1 Bft)
12.05.2020 07:02 20,4 C 2,2 C 9,5 C 55 % 92 % 1016,3 hPa 0,0 l/m 1,8 km/h (1 Bft) W-SW 247 1,0 C 2,2 C 3,3 km/h (1 Bft)
12.05.2020 07:00 20,4 C 2,2 C 9,6 C 55 % 92 % 1016,3 hPa 0,0 l/m 2,3 km/h (1 Bft) W-SW 247 1,0 C 2,2 C 2,7 km/h (1 Bft)
12.05.2020 06:58 20,4 C 2,2 C 9,6 C 55 % 92 % 1016,3 hPa 0,0 l/m 2,6 km/h (1 Bft) W 270 1,0 C 2,2 C 0,0 km/h (0 Bft)
12.05.2020 06:56 20,2 C 2,2 C 9,6 C 55 % 92 % 1016,3 hPa 0,0 l/m 2,7 km/h (1 Bft) NW 315 1,0 C 2,2 C 2,9 km/h (1 Bft)
12.05.2020 06:54 20,4 C 2,2 C 9,6 C 55 % 92 % 1016,3 hPa 0,0 l/m 2,3 km/h (1 Bft) W-NW 292 1,0 C 2,2 C 4,1 km/h (1 Bft)
12.05.2020 06:52 20,4 C 2,2 C 9,5 C 55 % 93 % 1016,3 hPa 0,0 l/m 1,8 km/h (1 Bft) NW 315 1,2 C 2,2 C 4,8 km/h (1 Bft)
12.05.2020 06:50 20,4 C 2,1 C 9,5 C 55 % 93 % 1016,3 hPa 0,0 l/m 1,1 km/h (1 Bft) W-NW 292 1,1 C 2,1 C 4,8 km/h (1 Bft)
12.05.2020 06:48 20,2 C 2,1 C 9,4 C 55 % 93 % 1016,3 hPa 0,0 l/m 0,8 km/h (0 Bft) N-NW 337 1,1 C 2,1 C 2,3 km/h (1 Bft)
12.05.2020 06:46 20,4 C 2,1 C 9,4 C 55 % 93 % 1016,0 hPa 0,0 l/m 0,6 km/h (0 Bft) N 360 1,1 C 2,1 C 2,1 km/h (1 Bft)
12.05.2020 06:44 20,2 C 2,0 C 9,4 C 55 % 93 % 1016,0 hPa 0,0 l/m 0,5 km/h (0 Bft) W-NW 292 1,0 C 2,0 C 0,0 km/h (0 Bft)
12.05.2020 06:42 20,2 C 2,0 C 9,4 C 55 % 93 % 1016,0 hPa 0,0 l/m 0,5 km/h (0 Bft) W-NW 292 1,0 C 2,0 C 0,0 km/h (0 Bft)
12.05.2020 06:40 20,2 C 2,0 C 9,3 C 55 % 93 % 1016,0 hPa 0,0 l/m 0,5 km/h (0 Bft) W 270 1,0 C 2,0 C 2,3 km/h (1 Bft)
12.05.2020 06:38 20,4 C 2,0 C 9,3 C 55 % 93 % 1016,0 hPa 0,0 l/m 0,3 km/h (0 Bft) W-SW 247 1,0 C 2,0 C 0,0 km/h (0 Bft)
12.05.2020 06:36 20,2 C 1,9 C 9,3 C 55 % 93 % 1016,0 hPa 0,0 l/m 0,6 km/h (0 Bft) NW 315 0,9 C 1,9 C 0,0 km/h (0 Bft)
12.05.2020 06:34 20,4 C 1,9 C 9,3 C 55 % 93 % 1016,0 hPa 0,0 l/m 1,0 km/h (0 Bft) NW 315 0,9 C 1,9 C 0,0 km/h (0 Bft)
12.05.2020 06:32 20,4 C 1,7 C 9,2 C 55 % 93 % 1016,0 hPa 0,0 l/m 1,1 km/h (1 Bft) NW 315 0,7 C 1,7 C 0,0 km/h (0 Bft)
12.05.2020 06:30 20,2 C 1,7 C 9,2 C 55 % 93 % 1016,0 hPa 0,0 l/m 1,1 km/h (1 Bft) NW 315 0,7 C 1,7 C 0,0 km/h (0 Bft)
12.05.2020 06:28 20,4 C 1,7 C 9,1 C 55 % 93 % 1016,0 hPa 0,0 l/m 1,1 km/h (1 Bft) W 270 0,7 C 1,7 C 0,0 km/h (0 Bft)
12.05.2020 06:26 20,2 C 1,7 C 9,1 C 55 % 93 % 1015,9 hPa 0,0 l/m 0,6 km/h (0 Bft) W-NW 292 0,7 C 1,7 C 5,0 km/h (1 Bft)
12.05.2020 06:24 20,4 C 1,7 C 9,0 C 55 % 93 % 1015,9 hPa 0,0 l/m 0,3 km/h (0 Bft) NW 315 0,7 C 1,7 C 2,1 km/h (1 Bft)
12.05.2020 06:22 20,4 C 1,7 C 9,0 C 55 % 93 % 1015,9 hPa 0,0 l/m 0,3 km/h (0 Bft) W-NW 292 0,7 C 1,7 C 2,1 km/h (1 Bft)
12.05.2020 06:20 20,4 C 1,6 C 8,9 C 55 % 93 % 1015,9 hPa 0,0 l/m 0,2 km/h (0 Bft) NW 315 0,6 C 1,6 C 0,0 km/h (0 Bft)
12.05.2020 06:18 20,4 C 1,6 C 8,9 C 55 % 93 % 1015,9 hPa 0,0 l/m 0,0 km/h (0 Bft) NW 315 0,6 C 1,6 C 2,1 km/h (1 Bft)
12.05.2020 06:16 20,3 C 1,6 C 8,9 C 55 % 93 % 1015,9 hPa 0,0 l/m 0,0 km/h (0 Bft) W-SW 247 0,6 C 1,6 C 0,0 km/h (0 Bft)
12.05.2020 06:14 20,2 C 1,6 C 8,9 C 55 % 93 % 1015,9 hPa 0,0 l/m 0,0 km/h (0 Bft) N-NW 337 0,6 C 1,6 C 0,0 km/h (0 Bft)
12.05.2020 06:12 20,4 C 1,5 C 8,8 C 55 % 94 % 1015,9 hPa 0,0 l/m 0,0 km/h (0 Bft) W-SW 247 0,6 C 1,5 C 0,0 km/h (0 Bft)
12.05.2020 06:10 20,2 C 1,5 C 8,8 C 55 % 94 % 1015,9 hPa 0,0 l/m 0,0 km/h (0 Bft) W-SW 247 0,6 C 1,5 C 0,0 km/h (0 Bft)
12.05.2020 06:08 20,4 C 1,5 C 8,8 C 55 % 94 % 1015,9 hPa 0,0 l/m 0,0 km/h (0 Bft) W-SW 247 0,6 C 1,5 C 0,0 km/h (0 Bft)
12.05.2020 06:06 20,4 C 1,5 C 8,8 C 55 % 94 % 1015,6 hPa 0,0 l/m 0,0 km/h (0 Bft) W-SW 247 0,6 C 1,5 C 0,0 km/h (0 Bft)
12.05.2020 06:04 20,4 C 1,5 C 8,8 C 55 % 94 % 1015,6 hPa 0,0 l/m 0,0 km/h (0 Bft) W-SW 247 0,6 C 1,5 C 0,0 km/h (0 Bft)
12.05.2020 06:02 20,4 C 1,5 C 8,8 C 55 % 94 % 1015,6 hPa 0,0 l/m 0,0 km/h (0 Bft) W-SW 247 0,6 C 1,5 C 0,0 km/h (0 Bft)
12.05.2020 06:00 20,4 C 1,5 C 8,7 C 55 % 94 % 1015,6 hPa 0,0 l/m 0,0 km/h (0 Bft) W-SW 247 0,6 C 1,5 C 0,0 km/h (0 Bft)
12.05.2020 05:58 20,4 C 1,5 C 8,7 C 55 % 94 % 1015,6 hPa 0,0 l/m 0,0 km/h (0 Bft) S 180 0,6 C 1,5 C 0,0 km/h (0 Bft)
12.05.2020 05:56 20,4 C 1,5 C 8,7 C 55 % 94 % 1015,6 hPa 0,0 l/m 0,0 km/h (0 Bft) W-SW 247 0,6 C 1,5 C 0,0 km/h (0 Bft)
12.05.2020 05:54 20,4 C 1,5 C 8,7 C 55 % 94 % 1015,6 hPa 0,0 l/m 0,0 km/h (0 Bft) NW 315 0,6 C 1,5 C 0,0 km/h (0 Bft)
12.05.2020 05:52 20,4 C 1,5 C 8,7 C 55 % 94 % 1015,6 hPa 0,0 l/m 0,0 km/h (0 Bft) W-NW 292 0,6 C 1,5 C 0,0 km/h (0 Bft)
12.05.2020 05:50 20,4 C 1,5 C 8,7 C 55 % 94 % 1015,6 hPa 0,0 l/m 0,0 km/h (0 Bft) SW 225 0,6 C 1,5 C 0,0 km/h (0 Bft)
12.05.2020 05:48 20,4 C 1,5 C 8,7 C 55 % 94 % 1015,6 hPa 0,1 l/m 0,0 km/h (0 Bft) SW 225 0,6 C 1,5 C 2,1 km/h (1 Bft)
12.05.2020 05:46 20,4 C 1,5 C 8,7 C 55 % 94 % 1015,4 hPa 0,0 l/m 0,0 km/h (0 Bft) S 180 0,6 C 1,5 C 0,0 km/h (0 Bft)
12.05.2020 05:44 20,4 C 1,5 C 8,7 C 55 % 94 % 1015,4 hPa 0,0 l/m 0,2 km/h (0 Bft) W-SW 247 0,6 C 1,5 C 0,0 km/h (0 Bft)
12.05.2020 05:42 20,4 C 1,4 C 8,7 C 55 % 94 % 1015,4 hPa 0,0 l/m 0,3 km/h (0 Bft) S-SO 157 0,5 C 1,4 C 0,0 km/h (0 Bft)
12.05.2020 05:40 20,4 C 1,5 C 8,8 C 55 % 94 % 1015,4 hPa 0,0 l/m 0,5 km/h (0 Bft) W-NW 292 0,6 C 1,5 C 0,0 km/h (0 Bft)
12.05.2020 05:38 20,4 C 1,5 C 8,8 C 55 % 94 % 1015,4 hPa 0,0 l/m 0,6 km/h (0 Bft) SW 225 0,6 C 1,5 C 0,0 km/h (0 Bft)
12.05.2020 05:36 20,4 C 1,5 C 8,8 C 55 % 94 % 1015,4 hPa 0,0 l/m 1,1 km/h (1 Bft) SW 225 0,6 C 1,5 C 2,3 km/h (1 Bft)
12.05.2020 05:34 20,4 C 1,5 C 8,8 C 55 % 94 % 1015,4 hPa 0,0 l/m 1,1 km/h (1 Bft) W-SW 247 0,6 C 1,5 C 0,0 km/h (0 Bft)
12.05.2020 05:32 20,4 C 1,5 C 8,8 C 55 % 94 % 1015,4 hPa 0,0 l/m 1,4 km/h (1 Bft) W 270 0,6 C 1,5 C 0,0 km/h (0 Bft)
12.05.2020 05:30 20,4 C 1,5 C 8,8 C 55 % 94 % 1015,4 hPa 0,0 l/m 1,9 km/h (1 Bft) W-SW 247 0,6 C 1,5 C 4,1 km/h (1 Bft)
12.05.2020 05:28 20,4 C 1,5 C 8,8 C 55 % 94 % 1015,4 hPa 0,0 l/m 2,4 km/h (1 Bft) S-SW 202 0,6 C 1,5 C 2,3 km/h (1 Bft)
12.05.2020 05:26 20,4 C 1,5 C 8,8 C 55 % 94 % 1015,0 hPa 0,0 l/m 3,1 km/h (1 Bft) N-NW 337 0,6 C 1,5 C 3,9 km/h (1 Bft)
12.05.2020 05:24 20,4 C 1,5 C 8,8 C 55 % 94 % 1015,0 hPa 0,0 l/m 3,2 km/h (1 Bft) NW 315 0,6 C 1,5 C 3,3 km/h (1 Bft)
12.05.2020 05:22 20,4 C 1,5 C 8,8 C 55 % 94 % 1015,0 hPa 0,0 l/m 3,7 km/h (1 Bft) NW 315 0,6 C 1,5 C 4,8 km/h (1 Bft)
12.05.2020 05:20 20,4 C 1,5 C 8,8 C 55 % 94 % 1015,0 hPa 0,0 l/m 4,2 km/h (1 Bft) N-NW 337 0,6 C 1,5 C 2,7 km/h (1 Bft)
12.05.2020 05:18 20,4 C 1,5 C 8,8 C 55 % 94 % 1015,0 hPa 0,0 l/m 4,7 km/h (1 Bft) N-NW 337 0,6 C 0,2 C 7,0 km/h (2 Bft)
12.05.2020 05:16 20,4 C 1,5 C 8,8 C 55 % 94 % 1015,0 hPa 0,0 l/m 5,1 km/h (1 Bft) NW 315 0,6 C 0,1 C 4,8 km/h (1 Bft)
12.05.2020 05:14 20,4 C 1,5 C 8,7 C 55 % 94 % 1015,0 hPa 0,0 l/m 5,3 km/h (1 Bft) N-NW 337 0,6 C -0,0 C 4,4 km/h (1 Bft)
12.05.2020 05:12 20,4 C 1,5 C 8,7 C 55 % 94 % 1015,0 hPa 0,0 l/m 6,0 km/h (2 Bft) N-NW 337 0,6 C -0,3 C 7,7 km/h (2 Bft)
12.05.2020 05:10 20,4 C 1,5 C 8,7 C 55 % 94 % 1015,0 hPa 0,0 l/m 5,3 km/h (1 Bft) N 360 0,6 C -0,0 C 5,4 km/h (1 Bft)
12.05.2020 05:08 20,4 C 1,5 C 8,7 C 55 % 94 % 1015,0 hPa 0,0 l/m 5,1 km/h (1 Bft) N-NW 337 0,6 C 0,1 C 7,0 km/h (2 Bft)
12.05.2020 05:06 20,4 C 1,5 C 8,7 C 55 % 94 % 1014,6 hPa 0,0 l/m 4,2 km/h (1 Bft) NW 315 0,6 C 1,5 C 8,3 km/h (2 Bft)
12.05.2020 05:04 20,4 C 1,5 C 8,7 C 55 % 94 % 1014,6 hPa 0,0 l/m 2,9 km/h (1 Bft) N-NW 337 0,6 C 1,5 C 10,8 km/h (2 Bft)
12.05.2020 05:01 20,4 C 1,5 C 8,7 C 55 % 94 % 1014,6 hPa 0,0 l/m 2,1 km/h (1 Bft) N-NW 337 0,6 C 1,5 C 7,3 km/h (2 Bft)
12.05.2020 05:00 20,4 C 1,5 C 8,7 C 55 % 94 % 1014,6 hPa 0,0 l/m 1,0 km/h (0 Bft) N-NW 337 0,6 C 1,5 C 3,3 km/h (1 Bft)
12.05.2020 04:58 20,4 C 1,5 C 8,7 C 55 % 94 % 1014,6 hPa 0,0 l/m 0,8 km/h (0 Bft) N-NW 337 0,6 C 1,5 C 4,6 km/h (1 Bft)
12.05.2020 04:56 20,2 C 1,4 C 8,7 C 55 % 94 % 1014,6 hPa 0,0 l/m 0,6 km/h (0 Bft) N 360 0,5 C 1,4 C 4,6 km/h (1 Bft)
12.05.2020 04:54 20,4 C 1,4 C 8,5 C 55 % 93 % 1014,6 hPa 0,0 l/m 1,3 km/h (1 Bft) N 360 0,4 C 1,4 C 0,0 km/h (0 Bft)
12.05.2020 04:52 20,4 C 1,2 C 8,5 C 55 % 93 % 1014,6 hPa 0,0 l/m 1,6 km/h (1 Bft) N 360 0,2 C 1,2 C 0,0 km/h (0 Bft)
12.05.2020 04:50 20,2 C 1,2 C 8,4 C 55 % 93 % 1014,6 hPa 0,1 l/m 2,4 km/h (1 Bft) N-NO 22 0,2 C 1,2 C 0,0 km/h (0 Bft)
12.05.2020 04:48 20,4 C 1,2 C 8,4 C 55 % 93 % 1014,6 hPa 0,0 l/m 3,2 km/h (1 Bft) N-NO 22 0,2 C 1,2 C 0,0 km/h (0 Bft)
12.05.2020 04:46 20,4 C 1,2 C 8,3 C 55 % 93 % 1014,5 hPa 0,0 l/m 3,9 km/h (1 Bft) N 360 0,2 C 1,2 C 3,7 km/h (1 Bft)
12.05.2020 04:44 20,4 C 1,2 C 8,2 C 55 % 93 % 1014,5 hPa 0,1 l/m 4,3 km/h (1 Bft) N-NW 337 0,2 C 1,2 C 4,1 km/h (1 Bft)
12.05.2020 04:42 20,2 C 1,2 C 8,2 C 55 % 93 % 1014,5 hPa 0,0 l/m 5,3 km/h (1 Bft) N-NW 337 0,2 C -0,4 C 5,0 km/h (1 Bft)
12.05.2020 04:40 20,2 C 1,4 C 8,2 C 55 % 93 % 1014,5 hPa 0,0 l/m 5,3 km/h (1 Bft) N-NW 337 0,4 C -0,1 C 5,0 km/h (1 Bft)
12.05.2020 04:38 20,2 C 1,4 C 8,4 C 55 % 93 % 1014,5 hPa 0,0 l/m 5,1 km/h (1 Bft) NW 315 0,4 C -0,0 C 6,0 km/h (2 Bft)
12.05.2020 04:36 20,4 C 1,4 C 8,5 C 55 % 93 % 1014,5 hPa 0,4 l/m 5,1 km/h (1 Bft) NW 315 0,4 C -0,0 C 8,1 km/h (2 Bft)
12.05.2020 04:34 20,2 C 1,4 C 8,7 C 55 % 93 % 1014,5 hPa 0,0 l/m 5,0 km/h (1 Bft) N-NW 337 0,4 C -0,0 C 8,5 km/h (2 Bft)
12.05.2020 04:32 20,2 C 1,5 C 8,7 C 55 % 93 % 1014,5 hPa 0,0 l/m 5,0 km/h (1 Bft) W-NW 292 0,5 C 0,1 C 8,1 km/h (2 Bft)
12.05.2020 04:30 20,4 C 1,6 C 8,7 C 55 % 93 % 1014,5 hPa 0,0 l/m 5,1 km/h (1 Bft) NW 315 0,6 C 0,2 C 9,5 km/h (2 Bft)
12.05.2020 04:28 20,2 C 1,6 C 8,8 C 55 % 93 % 1014,5 hPa 0,0 l/m 5,5 km/h (1 Bft) NW 315 0,6 C 0,0 C 6,2 km/h (2 Bft)
12.05.2020 04:26 20,4 C 1,6 C 8,8 C 55 % 93 % 1014,3 hPa 0,0 l/m 5,5 km/h (1 Bft) NW 315 0,6 C 0,0 C 4,8 km/h (1 Bft)
12.05.2020 04:24 20,4 C 1,6 C 8,8 C 55 % 93 % 1014,3 hPa 0,0 l/m 5,3 km/h (1 Bft) W-SW 247 0,6 C 0,1 C 2,9 km/h (1 Bft)
12.05.2020 04:22 20,4 C 1,6 C 8,9 C 55 % 93 % 1014,3 hPa 0,0 l/m 5,1 km/h (1 Bft) NW 315 0,6 C 0,2 C 6,8 km/h (2 Bft)
12.05.2020 04:20 20,2 C 1,6 C 8,9 C 55 % 93 % 1014,3 hPa 0,0 l/m 4,3 km/h (1 Bft) NW 315 0,6 C 1,6 C 12,6 km/h (3 Bft)
12.05.2020 04:18 20,4 C 1,7 C 9,0 C 55 % 93 % 1014,3 hPa 0,0 l/m 3,9 km/h (1 Bft) NW 315 0,7 C 1,7 C 7,3 km/h (2 Bft)
12.05.2020 04:16 20,4 C 1,7 C 9,1 C 55 % 93 % 1014,3 hPa 0,2 l/m 3,5 km/h (1 Bft) W-NW 292 0,7 C 1,7 C 6,2 km/h (2 Bft)
12.05.2020 04:14 20,4 C 1,9 C 9,1 C 55 % 93 % 1014,3 hPa 0,0 l/m 3,5 km/h (1 Bft) W 270 0,9 C 1,9 C 5,8 km/h (2 Bft)
12.05.2020 04:12 20,4 C 1,9 C 9,1 C 55 % 93 % 1014,3 hPa 0,0 l/m 3,5 km/h (1 Bft) W 270 0,9 C 1,9 C 6,0 km/h (2 Bft)
12.05.2020 04:10 20,4 C 2,0 C 9,1 C 55 % 93 % 1014,3 hPa 0,0 l/m 4,5 km/h (1 Bft) W 270 1,0 C 2,0 C 3,7 km/h (1 Bft)
12.05.2020 04:08 20,4 C 2,0 C 9,1 C 55 % 93 % 1014,3 hPa 0,0 l/m 4,2 km/h (1 Bft) N 360 1,0 C 2,0 C 2,1 km/h (1 Bft)
12.05.2020 04:06 20,4 C 2,0 C 9,1 C 55 % 93 % 1013,6 hPa 0,0 l/m 4,3 km/h (1 Bft) W-NW 292 1,0 C 2,0 C 6,0 km/h (2 Bft)
12.05.2020 04:04 20,4 C 2,0 C 9,1 C 55 % 93 % 1013,6 hPa 0,1 l/m 4,7 km/h (1 Bft) W 270 1,0 C 0,8 C 4,6 km/h (1 Bft)
12.05.2020 04:02 20,4 C 2,0 C 9,1 C 55 % 93 % 1013,6 hPa 0,0 l/m 4,8 km/h (1 Bft) NW 315 1,0 C 0,8 C 5,8 km/h (2 Bft)
12.05.2020 04:00 20,4 C 2,0 C 9,2 C 55 % 93 % 1013,6 hPa 0,0 l/m 4,3 km/h (1 Bft) NW 315 1,0 C 2,0 C 8,9 km/h (2 Bft)
12.05.2020 03:58 20,4 C 2,1 C 9,2 C 55 % 93 % 1013,6 hPa 0,0 l/m 4,2 km/h (1 Bft) N 360 1,1 C 2,1 C 4,2 km/h (1 Bft)
12.05.2020 03:56 20,4 C 2,1 C 9,2 C 55 % 93 % 1013,6 hPa 0,0 l/m 4,2 km/h (1 Bft) W 270 1,1 C 2,1 C 3,5 km/h (1 Bft)
12.05.2020 03:54 20,4 C 2,1 C 9,2 C 55 % 93 % 1013,6 hPa 0,0 l/m 3,9 km/h (1 Bft) NW 315 1,1 C 2,1 C 11,0 km/h (2 Bft)
12.05.2020 03:52 20,4 C 2,1 C 9,3 C 55 % 93 % 1013,6 hPa 0,1 l/m 3,5 km/h (1 Bft) W-SW 247 1,1 C 2,1 C 4,8 km/h (1 Bft)
12.05.2020 03:50 20,4 C 2,1 C 9,3 C 55 % 92 % 1013,6 hPa 0,0 l/m 3,4 km/h (1 Bft) W 270 0,9 C 2,1 C 2,3 km/h (1 Bft)
12.05.2020 03:48 20,2 C 2,2 C 9,3 C 55 % 92 % 1013,6 hPa 0,0 l/m 3,1 km/h (1 Bft) W-NW 292 1,0 C 2,2 C 5,4 km/h (1 Bft)
12.05.2020 03:46 20,4 C 2,2 C 9,3 C 55 % 92 % 1013,3 hPa 0,0 l/m 3,4 km/h (1 Bft) N-NW 337 1,0 C 2,2 C 2,5 km/h (1 Bft)
12.05.2020 03:44 20,4 C 2,2 C 9,3 C 55 % 92 % 1013,3 hPa 0,0 l/m 3,4 km/h (1 Bft) NW 315 1,0 C 2,2 C 2,7 km/h (1 Bft)
12.05.2020 03:42 20,4 C 2,2 C 9,3 C 55 % 92 % 1013,3 hPa 0,0 l/m 3,4 km/h (1 Bft) NW 315 1,0 C 2,2 C 5,4 km/h (1 Bft)
12.05.2020 03:40 20,4 C 2,2 C 9,3 C 55 % 92 % 1013,3 hPa 0,0 l/m 3,4 km/h (1 Bft) W-SW 247 1,0 C 2,2 C 4,1 km/h (1 Bft)
12.05.2020 03:38 20,4 C 2,2 C 9,3 C 55 % 92 % 1013,3 hPa 0,0 l/m 3,5 km/h (1 Bft) W-SW 247 1,0 C 2,2 C 2,7 km/h (1 Bft)
12.05.2020 03:36 20,4 C 2,2 C 9,3 C 55 % 92 % 1013,3 hPa 0,0 l/m 3,1 km/h (1 Bft) NW 315 1,0 C 2,2 C 7,1 km/h (2 Bft)
12.05.2020 03:34 20,4 C 2,2 C 9,3 C 55 % 92 % 1013,3 hPa 0,0 l/m 3,2 km/h (1 Bft) W 270 1,0 C 2,2 C 2,3 km/h (1 Bft)
12.05.2020 03:32 20,4 C 2,3 C 9,2 C 55 % 92 % 1013,3 hPa 0,0 l/m 3,4 km/h (1 Bft) N-NW 337 1,1 C 2,3 C 10,2 km/h (2 Bft)
12.05.2020 03:30 20,4 C 2,3 C 9,2 C 55 % 92 % 1013,3 hPa 0,0 l/m 3,5 km/h (1 Bft) S 180 1,1 C 2,3 C 6,0 km/h (2 Bft)
12.05.2020 03:28 20,4 C 2,3 C 9,2 C 55 % 92 % 1013,3 hPa 0,0 l/m 3,2 km/h (1 Bft) NW 315 1,1 C 2,3 C 5,0 km/h (1 Bft)
12.05.2020 03:26 20,4 C 2,3 C 9,2 C 55 % 92 % 1013,1 hPa 0,0 l/m 3,1 km/h (1 Bft) NW 315 1,1 C 2,3 C 3,7 km/h (1 Bft)
12.05.2020 03:24 20,4 C 2,3 C 9,1 C 55 % 92 % 1013,1 hPa 0,0 l/m 2,9 km/h (1 Bft) W 270 1,1 C 2,3 C 7,3 km/h (2 Bft)
12.05.2020 03:22 20,4 C 2,3 C 9,1 C 55 % 92 % 1013,1 hPa 0,0 l/m 1,9 km/h (1 Bft) W-SW 247 1,1 C 2,3 C 4,8 km/h (1 Bft)
12.05.2020 03:20 20,4 C 2,3 C 9,1 C 55 % 92 % 1013,1 hPa 0,0 l/m 1,9 km/h (1 Bft) W-SW 247 1,1 C 2,3 C 4,4 km/h (1 Bft)
12.05.2020 03:18 20,4 C 2,5 C 9,1 C 55 % 91 % 1013,1 hPa 0,0 l/m 1,8 km/h (1 Bft) S-SO 157 1,2 C 2,5 C 5,2 km/h (1 Bft)
12.05.2020 03:16 20,4 C 2,5 C 9,1 C 55 % 91 % 1013,1 hPa 0,0 l/m 1,6 km/h (1 Bft) W-SW 247 1,2 C 2,5 C 4,2 km/h (1 Bft)
12.05.2020 03:14 20,4 C 2,5 C 9,0 C 55 % 91 % 1013,1 hPa 0,0 l/m 1,4 km/h (1 Bft) W 270 1,2 C 2,5 C 2,9 km/h (1 Bft)
12.05.2020 03:12 20,4 C 2,5 C 9,0 C 55 % 91 % 1013,1 hPa 0,0 l/m 3,7 km/h (1 Bft) W 270 1,2 C 2,5 C 7,3 km/h (2 Bft)
12.05.2020 03:10 20,4 C 2,5 C 9,0 C 55 % 91 % 1013,1 hPa 0,0 l/m 3,7 km/h (1 Bft) W 270 1,2 C 2,5 C 7,3 km/h (2 Bft)
12.05.2020 03:08 20,4 C 2,5 C 9,0 C 55 % 91 % 1013,1 hPa 0,0 l/m 3,7 km/h (1 Bft) W 270 1,2 C 2,5 C 7,3 km/h (2 Bft)
12.05.2020 03:06 20,4 C 2,5 C 9,0 C 55 % 91 % 1012,4 hPa 0,0 l/m 3,7 km/h (1 Bft) W 270 1,2 C 2,5 C 7,3 km/h (2 Bft)
12.05.2020 03:04 20,4 C 2,5 C 9,0 C 55 % 91 % 1012,4 hPa 0,0 l/m 3,7 km/h (1 Bft) W 270 1,2 C 2,5 C 7,3 km/h (2 Bft)
12.05.2020 03:02 20,4 C 2,5 C 9,0 C 55 % 91 % 1012,4 hPa 0,0 l/m 3,7 km/h (1 Bft) W 270 1,2 C 2,5 C 7,3 km/h (2 Bft)
12.05.2020 03:00 20,4 C 2,6 C 9,0 C 55 % 90 % 1012,4 hPa 0,0 l/m 3,2 km/h (1 Bft) NW 315 1,1 C 2,6 C 2,7 km/h (1 Bft)
12.05.2020 02:58 20,4 C 2,6 C 9,0 C 55 % 90 % 1012,4 hPa 0,0 l/m 3,5 km/h (1 Bft) N-NW 337 1,1 C 2,6 C 5,4 km/h (1 Bft)
12.05.2020 02:56 20,4 C 2,6 C 9,0 C 55 % 90 % 1012,4 hPa 0,0 l/m 3,2 km/h (1 Bft) N-NW 337 1,1 C 2,6 C 7,9 km/h (2 Bft)
12.05.2020 02:54 20,4 C 2,5 C 9,0 C 55 % 90 % 1012,4 hPa 0,0 l/m 2,9 km/h (1 Bft) NW 315 1,0 C 2,5 C 5,6 km/h (1 Bft)
12.05.2020 02:52 20,4 C 2,6 C 9,0 C 55 % 90 % 1012,4 hPa 0,0 l/m 2,9 km/h (1 Bft) W-SW 247 1,1 C 2,6 C 3,5 km/h (1 Bft)
12.05.2020 02:50 20,4 C 2,6 C 9,0 C 55 % 90 % 1012,4 hPa 0,0 l/m 3,1 km/h (1 Bft) NW 315 1,1 C 2,6 C 2,9 km/h (1 Bft)
12.05.2020 02:48 20,4 C 2,6 C 9,0 C 55 % 90 % 1012,4 hPa 0,0 l/m 3,5 km/h (1 Bft) NW 315 1,1 C 2,6 C 6,4 km/h (2 Bft)
12.05.2020 02:46 20,4 C 2,6 C 9,0 C 55 % 89 % 1012,2 hPa 0,0 l/m 3,9 km/h (1 Bft) NW 315 1,0 C 2,6 C 3,5 km/h (1 Bft)
12.05.2020 02:44 20,4 C 2,6 C 9,0 C 55 % 89 % 1012,2 hPa 0,0 l/m 4,5 km/h (1 Bft) NW 315 1,0 C 2,6 C 4,6 km/h (1 Bft)
12.05.2020 02:42 20,4 C 2,6 C 8,9 C 55 % 89 % 1012,2 hPa 0,0 l/m 5,5 km/h (1 Bft) W-SW 247 1,0 C 1,2 C 3,9 km/h (1 Bft)
12.05.2020 02:40 20,4 C 2,6 C 8,9 C 55 % 89 % 1012,2 hPa 0,0 l/m 6,0 km/h (2 Bft) NW 315 1,0 C 1,0 C 7,3 km/h (2 Bft)
12.05.2020 02:38 20,4 C 2,6 C 8,9 C 55 % 89 % 1012,2 hPa 0,0 l/m 6,6 km/h (2 Bft) NW 315 1,0 C 0,8 C 8,5 km/h (2 Bft)
12.05.2020 02:36 20,4 C 2,6 C 8,9 C 55 % 89 % 1012,2 hPa 0,0 l/m 6,9 km/h (2 Bft) NW 315 1,0 C 0,7 C 5,0 km/h (1 Bft)
12.05.2020 02:34 20,4 C 2,6 C 8,9 C 55 % 89 % 1012,2 hPa 0,0 l/m 6,9 km/h (2 Bft) N-NW 337 1,0 C 0,7 C 17,6 km/h (3 Bft)
12.05.2020 02:32 20,4 C 2,6 C 8,9 C 55 % 88 % 1012,2 hPa 0,0 l/m 6,9 km/h (2 Bft) N-NW 337 0,8 C 0,7 C 7,9 km/h (2 Bft)
12.05.2020 02:30 20,4 C 2,6 C 8,8 C 55 % 88 % 1012,2 hPa 0,0 l/m 7,1 km/h (2 Bft) NW 315 0,8 C 0,6 C 8,9 km/h (2 Bft)
12.05.2020 02:28 20,4 C 2,6 C 8,8 C 55 % 88 % 1012,2 hPa 0,1 l/m 6,9 km/h (2 Bft) N-NW 337 0,8 C 0,7 C 11,6 km/h (2 Bft)
12.05.2020 02:26 20,4 C 2,6 C 8,8 C 55 % 88 % 1011,8 hPa 0,0 l/m 7,2 km/h (2 Bft) NW 315 0,8 C 0,6 C 11,8 km/h (2 Bft)
12.05.2020 02:24 20,4 C 2,7 C 8,8 C 55 % 88 % 1011,8 hPa 0,0 l/m 7,7 km/h (2 Bft) NW 315 0,9 C 0,5 C 9,8 km/h (2 Bft)
12.05.2020 02:22 20,4 C 2,7 C 8,8 C 55 % 88 % 1011,8 hPa 0,0 l/m 7,2 km/h (2 Bft) NW 315 0,9 C 0,7 C 8,3 km/h (2 Bft)
12.05.2020 02:20 20,4 C 2,7 C 8,7 C 55 % 88 % 1011,8 hPa 0,0 l/m 7,9 km/h (2 Bft) W 270 0,9 C 0,5 C 8,3 km/h (2 Bft)
12.05.2020 02:18 20,4 C 2,7 C 8,7 C 55 % 87 % 1011,8 hPa 0,0 l/m 8,2 km/h (2 Bft) W-NW 292 0,8 C 0,4 C 9,3 km/h (2 Bft)
12.05.2020 02:16 20,4 C 2,7 C 8,7 C 55 % 87 % 1011,8 hPa 0,0 l/m 8,2 km/h (2 Bft) N 360 0,8 C 0,4 C 18,2 km/h (3 Bft)
12.05.2020 02:14 20,4 C 2,8 C 8,8 C 55 % 88 % 1011,8 hPa 0,0 l/m 7,1 km/h (2 Bft) N-NW 337 1,0 C 0,8 C 5,2 km/h (1 Bft)
12.05.2020 02:12 20,4 C 2,8 C 8,8 C 55 % 87 % 1011,8 hPa 0,0 l/m 7,1 km/h (2 Bft) SW 225 0,9 C 0,8 C 7,0 km/h (2 Bft)
12.05.2020 02:10 20,4 C 2,9 C 9,1 C 55 % 88 % 1011,8 hPa 0,0 l/m 6,8 km/h (2 Bft) NW 315 1,1 C 1,0 C 14,3 km/h (3 Bft)
12.05.2020 02:08 20,4 C 2,9 C 9,1 C 55 % 88 % 1011,8 hPa 0,1 l/m 6,6 km/h (2 Bft) NW 315 1,1 C 1,1 C 12,6 km/h (3 Bft)
12.05.2020 02:06 20,4 C 2,9 C 9,0 C 55 % 88 % 1011,2 hPa 0,0 l/m 6,9 km/h (2 Bft) NW 315 1,1 C 1,0 C 7,3 km/h (2 Bft)
12.05.2020 02:04 20,4 C 2,9 C 9,0 C 55 % 87 % 1011,2 hPa 0,0 l/m 6,9 km/h (2 Bft) N-NW 337 1,0 C 1,0 C 11,6 km/h (2 Bft)
12.05.2020 02:02 20,4 C 3,0 C 8,8 C 55 % 87 % 1011,2 hPa 0,0 l/m 8,0 km/h (2 Bft) NW 315 1,1 C 0,8 C 5,2 km/h (1 Bft)
12.05.2020 02:00 20,4 C 3,0 C 8,8 C 55 % 87 % 1011,2 hPa 0,0 l/m 9,0 km/h (2 Bft) N-NW 337 1,1 C 0,5 C 8,7 km/h (2 Bft)
12.05.2020 01:58 20,4 C 3,0 C 9,0 C 55 % 86 % 1011,2 hPa 0,0 l/m 9,5 km/h (2 Bft) NW 315 0,9 C 0,4 C 13,1 km/h (3 Bft)
12.05.2020 01:56 20,4 C 3,0 C 9,0 C 55 % 86 % 1011,2 hPa 0,0 l/m 9,8 km/h (2 Bft) N-NW 337 0,9 C 0,3 C 14,3 km/h (3 Bft)
12.05.2020 01:54 20,4 C 3,0 C 9,0 C 55 % 86 % 1011,2 hPa 0,0 l/m 10,0 km/h (2 Bft) N-NW 337 0,9 C 0,3 C 12,0 km/h (2 Bft)
12.05.2020 01:52 20,4 C 3,0 C 9,0 C 55 % 86 % 1011,2 hPa 0,0 l/m 10,0 km/h (2 Bft) N-NW 337 0,9 C 0,3 C 14,7 km/h (3 Bft)
12.05.2020 01:50 20,4 C 3,1 C 8,8 C 55 % 86 % 1011,2 hPa 0,0 l/m 9,7 km/h (2 Bft) N-NW 337 1,0 C 0,5 C 22,4 km/h (4 Bft)
12.05.2020 01:48 20,4 C 3,1 C 9,0 C 55 % 86 % 1011,2 hPa 0,0 l/m 9,5 km/h (2 Bft) N-NW 337 1,0 C 0,5 C 9,7 km/h (2 Bft)
12.05.2020 01:46 20,4 C 3,0 C 9,0 C 55 % 86 % 1010,8 hPa 0,0 l/m 10,5 km/h (2 Bft) N 360 0,9 C 0,2 C 15,1 km/h (3 Bft)
12.05.2020 01:44 20,4 C 3,0 C 9,1 C 55 % 86 % 1010,8 hPa 0,0 l/m 10,9 km/h (2 Bft) N-NW 337 0,9 C 0,1 C 13,3 km/h (3 Bft)
12.05.2020 01:42 20,4 C 3,0 C 9,1 C 55 % 86 % 1010,8 hPa 0,0 l/m 11,6 km/h (2 Bft) N 360 0,9 C -0,1 C 10,8 km/h (2 Bft)
12.05.2020 01:40 20,4 C 3,1 C 9,1 C 55 % 85 % 1010,8 hPa 0,1 l/m 11,7 km/h (2 Bft) NO 45 0,8 C 0,0 C 11,4 km/h (2 Bft)
12.05.2020 01:38 20,4 C 3,1 C 9,2 C 55 % 85 % 1010,8 hPa 0,0 l/m 11,7 km/h (2 Bft) N-NO 22 0,8 C 0,0 C 13,9 km/h (3 Bft)
12.05.2020 01:36 20,2 C 3,1 C 9,2 C 55 % 87 % 1010,8 hPa 0,0 l/m 11,7 km/h (2 Bft) N-NW 337 1,2 C 0,0 C 17,6 km/h (3 Bft)
12.05.2020 01:34 20,4 C 3,1 C 9,3 C 55 % 87 % 1010,8 hPa 0,0 l/m 10,9 km/h (2 Bft) S-SO 157 1,2 C 0,2 C 18,2 km/h (3 Bft)
12.05.2020 01:32 20,4 C 3,0 C 9,3 C 55 % 87 % 1010,8 hPa 0,0 l/m 10,1 km/h (2 Bft) N-NO 22 1,1 C 0,2 C 21,0 km/h (4 Bft)
12.05.2020 01:30 20,4 C 3,0 C 9,3 C 55 % 88 % 1010,8 hPa 0,0 l/m 10,1 km/h (2 Bft) N-NO 22 1,2 C 0,2 C 14,7 km/h (3 Bft)
12.05.2020 01:28 20,2 C 3,0 C 9,3 C 55 % 88 % 1010,8 hPa 0,0 l/m 10,1 km/h (2 Bft) N-NO 22 1,2 C 0,2 C 12,0 km/h (2 Bft)
12.05.2020 01:26 20,4 C 3,0 C 9,3 C 55 % 88 % 1010,3 hPa 0,0 l/m 10,1 km/h (2 Bft) N-NO 22 1,2 C 0,2 C 16,2 km/h (3 Bft)
12.05.2020 01:24 20,2 C 3,0 C 9,3 C 55 % 88 % 1010,3 hPa 0,0 l/m 10,6 km/h (2 Bft) N-NO 22 1,2 C 0,1 C 14,1 km/h (3 Bft)
12.05.2020 01:22 20,4 C 3,0 C 9,3 C 55 % 88 % 1010,3 hPa 0,0 l/m 10,9 km/h (2 Bft) N 360 1,2 C 0,1 C 11,6 km/h (2 Bft)
12.05.2020 01:20 20,4 C 3,0 C 9,4 C 55 % 88 % 1010,3 hPa 0,0 l/m 11,9 km/h (2 Bft) N 360 1,2 C -0,1 C 11,4 km/h (2 Bft)
12.05.2020 01:18 20,4 C 3,1 C 9,4 C 55 % 87 % 1010,3 hPa 0,0 l/m 11,9 km/h (2 Bft) N-NO 22 1,2 C -0,0 C 12,0 km/h (2 Bft)
12.05.2020 01:16 20,2 C 3,1 C 9,4 C 55 % 87 % 1010,3 hPa 0,0 l/m 12,6 km/h (3 Bft) N-NO 22 1,2 C -0,2 C 19,1 km/h (3 Bft)
12.05.2020 01:14 20,4 C 3,1 C 9,5 C 55 % 87 % 1010,3 hPa 0,0 l/m 12,6 km/h (3 Bft) N-NO 22 1,2 C -0,2 C 19,1 km/h (3 Bft)
12.05.2020 01:12 20,4 C 3,1 C 9,5 C 55 % 87 % 1010,3 hPa 0,0 l/m 13,2 km/h (3 Bft) N 360 1,2 C -0,3 C 17,0 km/h (3 Bft)
12.05.2020 01:10 20,2 C 3,1 C 9,5 C 55 % 87 % 1010,3 hPa 0,0 l/m 13,4 km/h (3 Bft) N-NO 22 1,2 C -0,3 C 17,2 km/h (3 Bft)
12.05.2020 01:08 20,4 C 3,1 C 9,5 C 55 % 87 % 1010,3 hPa 0,0 l/m 13,0 km/h (3 Bft) N-NO 22 1,2 C -0,2 C 13,7 km/h (3 Bft)
12.05.2020 01:06 20,4 C 3,1 C 9,7 C 55 % 87 % 1009,9 hPa 0,0 l/m 13,2 km/h (3 Bft) N-NW 337 1,2 C -0,3 C 20,3 km/h (4 Bft)
12.05.2020 01:04 20,4 C 3,3 C 9,7 C 55 % 87 % 1009,9 hPa 0,0 l/m 13,0 km/h (3 Bft) N-NO 22 1,3 C 0,0 C 16,8 km/h (3 Bft)
12.05.2020 01:02 20,2 C 3,3 C 9,7 C 55 % 87 % 1009,9 hPa 0,0 l/m 12,4 km/h (3 Bft) N-NO 22 1,3 C 0,1 C 24,3 km/h (4 Bft)
12.05.2020 01:00 20,4 C 3,3 C 9,8 C 55 % 88 % 1009,9 hPa 0,0 l/m 12,1 km/h (2 Bft) N-NW 337 1,5 C 0,2 C 18,2 km/h (3 Bft)
12.05.2020 00:58 20,4 C 3,3 C 9,8 C 55 % 88 % 1009,9 hPa 0,0 l/m 11,9 km/h (2 Bft) N-NO 22 1,5 C 0,2 C 15,6 km/h (3 Bft)
12.05.2020 00:56 20,2 C 3,3 C 9,9 C 55 % 88 % 1009,9 hPa 0,0 l/m 11,9 km/h (2 Bft) N 360 1,5 C 0,2 C 17,8 km/h (3 Bft)
12.05.2020 00:54 20,2 C 3,3 C 10,0 C 55 % 88 % 1009,9 hPa 0,0 l/m 11,7 km/h (2 Bft) N-NW 337 1,5 C 0,3 C 11,2 km/h (2 Bft)
12.05.2020 00:52 20,2 C 3,3 C 10,1 C 55 % 88 % 1009,9 hPa 0,0 l/m 12,1 km/h (2 Bft) N-NO 22 1,5 C 0,2 C 17,6 km/h (3 Bft)
12.05.2020 00:50 20,2 C 3,3 C 10,3 C 55 % 88 % 1009,9 hPa 0,0 l/m 12,7 km/h (3 Bft) N-NO 22 1,5 C 0,1 C 14,9 km/h (3 Bft)
12.05.2020 00:48 20,2 C 3,3 C 10,3 C 55 % 88 % 1009,9 hPa 0,1 l/m 12,7 km/h (3 Bft) N-NO 22 1,5 C 0,1 C 14,9 km/h (3 Bft)
12.05.2020 00:46 20,4 C 3,4 C 10,4 C 55 % 88 % 1009,7 hPa 0,0 l/m 13,7 km/h (3 Bft) N 360 1,6 C -0,0 C 17,4 km/h (3 Bft)
12.05.2020 00:44 20,3 C 3,4 C 10,4 C 55 % 89 % 1009,7 hPa 0,0 l/m 13,7 km/h (3 Bft) N 360 1,8 C -0,0 C 28,6 km/h (4 Bft)
12.05.2020 00:42 20,3 C 3,5 C 10,7 C 55 % 89 % 1009,7 hPa 0,0 l/m 13,5 km/h (3 Bft) N-NO 22 1,9 C 0,2 C 15,1 km/h (3 Bft)
12.05.2020 00:40 20,2 C 3,5 C 10,7 C 55 % 89 % 1009,7 hPa 0,0 l/m 13,7 km/h (3 Bft) N 360 1,9 C 0,1 C 19,5 km/h (3 Bft)
12.05.2020 00:38 20,2 C 3,6 C 11,0 C 55 % 89 % 1009,7 hPa 0,0 l/m 13,7 km/h (3 Bft) N-NO 22 2,0 C 0,2 C 17,4 km/h (3 Bft)
12.05.2020 00:36 20,3 C 4,2 C 11,0 C 55 % 91 % 1009,7 hPa 0,0 l/m 13,4 km/h (3 Bft) NO 45 2,9 C 1,0 C 25,3 km/h (4 Bft)
12.05.2020 00:34 20,2 C 4,2 C 11,1 C 55 % 91 % 1009,7 hPa 0,0 l/m 12,6 km/h (3 Bft) N-NO 22 2,9 C 1,2 C 21,4 km/h (4 Bft)
12.05.2020 00:32 20,3 C 4,2 C 11,1 C 55 % 91 % 1009,7 hPa 0,0 l/m 12,7 km/h (3 Bft) N-NO 22 2,9 C 1,2 C 11,4 km/h (2 Bft)
12.05.2020 00:30 20,2 C 4,2 C 11,1 C 55 % 91 % 1009,7 hPa 0,1 l/m 12,7 km/h (3 Bft) N-NO 22 2,9 C 1,2 C 17,6 km/h (3 Bft)
12.05.2020 00:28 20,2 C 4,2 C 11,3 C 55 % 91 % 1009,7 hPa 0,0 l/m 11,9 km/h (2 Bft) NO 45 2,9 C 1,3 C 21,4 km/h (4 Bft)
12.05.2020 00:26 20,2 C 4,2 C 11,3 C 55 % 92 % 1009,2 hPa 0,0 l/m 11,4 km/h (2 Bft) N-NO 22 3,0 C 1,4 C 17,0 km/h (3 Bft)
12.05.2020 00:24 20,3 C 4,4 C 11,5 C 55 % 92 % 1009,2 hPa 0,0 l/m 11,1 km/h (2 Bft) N-NO 22 3,2 C 1,7 C 18,0 km/h (3 Bft)
12.05.2020 00:22 20,2 C 4,4 C 11,6 C 55 % 92 % 1009,2 hPa 0,0 l/m 10,1 km/h (2 Bft) N-NW 337 3,2 C 1,9 C 15,4 km/h (3 Bft)
12.05.2020 00:20 20,3 C 4,5 C 11,6 C 55 % 93 % 1009,2 hPa 0,0 l/m 10,1 km/h (2 Bft) N 360 3,5 C 2,0 C 14,7 km/h (3 Bft)
12.05.2020 00:18 20,2 C 4,3 C 11,7 C 55 % 93 % 1009,2 hPa 0,3 l/m 10,6 km/h (2 Bft) N 360 3,3 C 1,7 C 12,0 km/h (2 Bft)
12.05.2020 00:16 20,3 C 4,5 C 11,7 C 55 % 93 % 1009,2 hPa 0,0 l/m 10,6 km/h (2 Bft) N-NO 22 3,5 C 1,9 C 13,3 km/h (3 Bft)
12.05.2020 00:14 20,3 C 4,8 C 11,7 C 55 % 94 % 1009,2 hPa 0,0 l/m 10,9 km/h (2 Bft) N-NO 22 3,9 C 2,2 C 14,7 km/h (3 Bft)
12.05.2020 00:12 20,3 C 4,8 C 12,1 C 55 % 94 % 1009,2 hPa 0,0 l/m 8,7 km/h (2 Bft) N-NW 337 3,9 C 2,7 C 13,7 km/h (3 Bft)
12.05.2020 00:10 20,2 C 4,8 C 12,1 C 55 % 94 % 1009,2 hPa 0,0 l/m 8,7 km/h (2 Bft) N-NW 337 3,9 C 2,7 C 13,7 km/h (3 Bft)
12.05.2020 00:08 20,3 C 4,8 C 12,1 C 55 % 94 % 1009,2 hPa 0,0 l/m 8,7 km/h (2 Bft) N-NW 337 3,9 C 2,7 C 13,7 km/h (3 Bft)
12.05.2020 00:06 20,2 C 4,8 C 12,1 C 55 % 94 % 1008,6 hPa 0,0 l/m 8,7 km/h (2 Bft) N-NW 337 3,9 C 2,7 C 13,7 km/h (3 Bft)
12.05.2020 00:04 20,2 C 4,8 C 12,1 C 55 % 94 % 1008,6 hPa 0,0 l/m 8,7 km/h (2 Bft) N-NW 337 3,9 C 2,7 C 13,7 km/h (3 Bft)
12.05.2020 00:02 20,3 C 4,8 C 12,1 C 55 % 94 % 1008,6 hPa 0,0 l/m 8,7 km/h (2 Bft) N-NW 337 3,9 C 2,7 C 13,7 km/h (3 Bft)
12.05.2020 00:00 20,2 C 4,8 C 12,2 C 55 % 94 % 1008,6 hPa 0,1 l/m 8,4 km/h (2 Bft) N-NO 22 3,9 C 2,8 C 9,8 km/h (2 Bft)
_ Min-Zeit 00:00 04:42 04:40 16:58 16:24 00:00 - 05:46 - - 14:54 04:42 04:48
Minimum _ 20,2 C 1,2 C 8,2 C 51 % 42 % 1008,6 hPa - 0,0 km/h (0 Bft) - - -4,6 C -0,4 C 0,0 km/h (0 Bft)
_ Max-Zeit 12:50 16:44 16:36 00:00 00:00 12:48 04:36 14:30 - - 00:00 16:44 14:34
Maximum _ 21,8 C 10,7 C 23,9 C 55 % 94 % 1019,3 hPa 0,4 l/m 13,8 km/h
S-SW (3 Bft)
- - 3,9 C 10,7 C 31,3 km/h
W (5 Bft)
Durchschnitt _ 20,9 C 4,5 C 13,4 C 54 % 73 % 1016,2 hPa #2,0 l/m 5,6 km/h (1 Bft) N-NO - -0,3 C 3,5 C 8,1 km/h (2 Bft)